Time,TemperatureF,DewpointF,PressureIn,WindDirection,WindDirectionDegrees,WindSpeedMPH,WindSpeedGustMPH,Humidity,HourlyPrecipIn,Conditions,Clouds,dailyrainin,SolarRadiationWatts/m^2,SoftwareType,DateUTC
2013-05-23 00:00:00,66.0,60.7,29.74,West,274,2.0,6.0,83,0.00,,OVC100,0.14,0.00,VWS V14.01,2013-05-23 04:00:00,
2013-05-23 00:01:00,66.0,60.7,29.74,West,274,2.0,4.0,83,0.00,,BKN100,0.00,0.00,VWS V14.01,2013-05-23 04:01:00,
2013-05-23 00:05:00,66.0,60.7,29.74,West,262,2.0,6.0,83,0.00,,OVC100,0.00,0.00,VWS V14.01,2013-05-23 04:05:00,
2013-05-23 00:06:00,65.8,60.5,29.74,West,262,5.0,5.0,83,0.00,,BKN100,0.00,0.00,VWS V14.01,2013-05-23 04:06:00,
2013-05-23 00:10:00,65.8,60.8,29.74,West,278,3.0,8.0,84,0.00,,OVC100,0.00,0.00,VWS V14.01,2013-05-23 04:10:00,
2013-05-23 00:11:00,65.8,60.5,29.74,West,278,3.0,4.0,83,0.00,,BKN100,0.00,0.00,VWS V14.01,2013-05-23 04:11:00,
2013-05-23 00:15:00,65.8,60.8,29.73,West,277,4.0,6.0,84,0.00,,OVC100,0.00,0.00,VWS V14.01,2013-05-23 04:15:00,
2013-05-23 00:16:00,65.8,60.8,29.73,West,277,2.0,4.0,84,0.00,,BKN100,0.00,0.00,VWS V14.01,2013-05-23 04:16:00,
2013-05-23 00:20:00,65.6,60.6,29.73,West,267,4.0,6.0,84,0.00,,OVC100,0.00,0.00,VWS V14.01,2013-05-23 04:20:00,
2013-05-23 00:21:00,65.6,60.6,29.73,West,267,4.0,6.0,84,0.00,,BKN100,0.00,0.00,VWS V14.01,2013-05-23 04:21:00,
2013-05-23 00:25:00,65.6,60.6,29.73,West,277,4.0,8.0,84,0.00,,OVC100,0.00,0.00,VWS V14.01,2013-05-23 04:25:00,
2013-05-23 00:26:00,65.6,60.6,29.73,West,277,1.0,4.0,84,0.00,,BKN100,0.00,0.00,VWS V14.01,2013-05-23 04:26:00,
2013-05-23 00:30:00,65.6,60.6,29.74,West,277,3.0,5.0,84,0.00,,OVC100,0.00,0.00,VWS V14.01,2013-05-23 04:30:00,
2013-05-23 00:31:00,65.6,60.6,29.74,West,277,3.0,4.0,84,0.00,,BKN100,0.00,0.00,VWS V14.01,2013-05-23 04:31:00,
2013-05-23 00:35:00,65.5,60.5,29.74,West,277,0.0,6.0,84,0.00,,OVC100,0.00,0.00,VWS V14.01,2013-05-23 04:35:00,
2013-05-23 00:36:00,65.5,60.5,29.74,West,277,2.0,2.0,84,0.00,,BKN100,0.00,0.00,VWS V14.01,2013-05-23 04:36:00,
2013-05-23 00:40:00,65.5,60.9,29.74,WSW,258,2.0,4.0,85,0.00,,OVC100,0.00,0.00,VWS V14.01,2013-05-23 04:40:00,
2013-05-23 00:41:00,65.3,60.7,29.74,WSW,258,0.0,3.0,85,0.00,,BKN100,0.00,0.00,VWS V14.01,2013-05-23 04:41:00,
2013-05-23 00:45:00,65.3,60.7,29.74,WSW,258,3.0,5.0,85,0.00,,OVC100,0.00,0.00,VWS V14.01,2013-05-23 04:45:00,
2013-05-23 00:46:00,65.3,60.7,29.74,WSW,257,3.0,3.0,85,0.00,,BKN100,0.00,0.00,VWS V14.01,2013-05-23 04:46:00,
2013-05-23 00:50:00,65.2,60.6,29.74,WSW,257,1.0,4.0,85,0.00,,OVC100,0.00,0.00,VWS V14.01,2013-05-23 04:50:00,
2013-05-23 00:51:00,65.2,60.6,29.74,WSW,257,2.0,3.0,85,0.00,,BKN100,0.00,0.00,VWS V14.01,2013-05-23 04:51:00,
2013-05-23 00:55:00,65.0,60.7,29.74,WSW,257,2.0,5.0,86,0.00,,OVC100,0.00,0.00,VWS V14.01,2013-05-23 04:55:00,
2013-05-23 00:56:00,65.0,60.7,29.74,WSW,257,1.0,3.0,86,0.00,,BKN100,0.00,0.00,VWS V14.01,2013-05-23 04:56:00,
2013-05-23 01:00:00,64.8,60.5,29.74,WSW,258,0.0,3.0,86,0.00,,OVC100,0.00,0.00,VWS V14.01,2013-05-23 05:00:00,
2013-05-23 01:01:00,64.7,60.4,29.74,WSW,257,0.0,1.0,86,0.00,,CLR,0.00,0.00,VWS V14.01,2013-05-23 05:01:00,
2013-05-23 01:06:00,64.5,60.2,29.74,WSW,257,0.0,2.0,86,0.00,,CLR,0.00,0.00,VWS V14.01,2013-05-23 05:06:00,
2013-05-23 01:10:00,64.2,60.3,29.74,WSW,257,2.0,4.0,87,0.00,,OVC100,0.00,0.00,VWS V14.01,2013-05-23 05:10:00,
2013-05-23 01:11:00,64.2,60.3,29.74,WSW,257,1.0,2.0,87,0.00,,CLR,0.00,0.00,VWS V14.01,2013-05-23 05:11:00,
2013-05-23 01:15:00,63.9,60.0,29.74,WSW,257,1.0,2.0,87,0.00,,OVC100,0.00,0.00,VWS V14.01,2013-05-23 05:15:00,
2013-05-23 01:16:00,63.9,60.0,29.74,WSW,257,1.0,1.0,87,0.00,,CLR,0.00,0.00,VWS V14.01,2013-05-23 05:16:00,
2013-05-23 01:20:00,63.7,59.8,29.74,WSW,257,0.0,3.0,87,0.00,,OVC100,0.00,0.00,VWS V14.01,2013-05-23 05:20:00,
2013-05-23 01:21:00,63.7,59.8,29.74,WSW,257,4.0,5.0,87,0.00,,CLR,0.00,0.00,VWS V14.01,2013-05-23 05:21:00,
2013-05-23 01:25:00,63.5,59.9,29.74,WSW,257,1.0,5.0,88,0.00,,OVC100,0.00,0.00,VWS V14.01,2013-05-23 05:25:00,
2013-05-23 01:26:00,63.5,59.9,29.74,WSW,258,3.0,3.0,88,0.00,,CLR,0.00,0.00,VWS V14.01,2013-05-23 05:26:00,
2013-05-23 01:30:00,63.5,59.9,29.74,WSW,257,2.0,4.0,88,0.00,,OVC100,0.00,0.00,VWS V14.01,2013-05-23 05:30:00,
2013-05-23 01:31:00,63.5,59.9,29.74,WSW,257,1.0,3.0,88,0.00,,CLR,0.00,0.00,VWS V14.01,2013-05-23 05:31:00,
2013-05-23 01:35:00,63.4,59.8,29.74,WSW,257,4.0,5.0,88,0.00,,OVC100,0.00,0.00,VWS V14.01,2013-05-23 05:35:00,
2013-05-23 01:36:00,63.4,59.8,29.74,WSW,257,3.0,4.0,88,0.00,,CLR,0.00,0.00,VWS V14.01,2013-05-23 05:36:00,
2013-05-23 01:40:00,63.4,60.1,29.74,WSW,257,2.0,5.0,89,0.00,,OVC100,0.00,0.00,VWS V14.01,2013-05-23 05:40:00,
2013-05-23 01:41:00,63.4,60.1,29.74,WSW,257,1.0,3.0,89,0.00,,CLR,0.00,0.00,VWS V14.01,2013-05-23 05:41:00,
2013-05-23 01:45:00,63.4,60.1,29.74,WSW,257,1.0,3.0,89,0.00,,OVC100,0.00,0.00,VWS V14.01,2013-05-23 05:45:00,
2013-05-23 01:46:00,63.4,60.1,29.74,WSW,257,2.0,2.0,89,0.00,,CLR,0.00,0.00,VWS V14.01,2013-05-23 05:46:00,
2013-05-23 01:50:00,63.4,60.1,29.74,WSW,257,3.0,3.0,89,0.00,,OVC100,0.00,0.00,VWS V14.01,2013-05-23 05:50:00,
2013-05-23 01:51:00,63.4,60.1,29.74,WSW,257,1.0,5.0,89,0.00,,CLR,0.00,0.00,VWS V14.01,2013-05-23 05:51:00,
2013-05-23 01:55:00,63.4,60.1,29.74,WSW,257,4.0,5.0,89,0.00,,OVC100,0.00,0.00,VWS V14.01,2013-05-23 05:55:00,
2013-05-23 01:56:00,63.4,60.1,29.74,WSW,257,1.0,4.0,89,0.00,,CLR,0.00,0.00,VWS V14.01,2013-05-23 05:56:00,
2013-05-23 02:00:00,63.2,59.9,29.74,WSW,257,6.0,6.0,89,0.00,,OVC100,0.00,0.00,VWS V14.01,2013-05-23 06:00:00,
2013-05-23 02:01:00,63.2,59.9,29.74,WSW,257,3.0,6.0,89,0.00,,BKN100,0.00,0.00,VWS V14.01,2013-05-23 06:01:00,
2013-05-23 02:05:00,63.2,59.9,29.74,WSW,257,1.0,6.0,89,0.00,,OVC100,0.00,0.00,VWS V14.01,2013-05-23 06:05:00,
2013-05-23 02:06:00,63.2,59.9,29.74,WSW,257,4.0,4.0,89,0.00,,BKN100,0.00,0.00,VWS V14.01,2013-05-23 06:06:00,
2013-05-23 02:10:00,63.2,59.9,29.74,WSW,257,4.0,5.0,89,0.00,,OVC100,0.00,0.00,VWS V14.01,2013-05-23 06:10:00,
2013-05-23 02:11:00,63.2,59.9,29.74,WSW,257,4.0,5.0,89,0.00,,BKN100,0.00,0.00,VWS V14.01,2013-05-23 06:11:00,
2013-05-23 02:15:00,63.2,59.9,29.74,WSW,254,3.0,6.0,89,0.00,,OVC100,0.00,0.00,VWS V14.01,2013-05-23 06:15:00,
2013-05-23 02:16:00,63.2,59.9,29.74,WSW,254,2.0,3.0,89,0.00,,BKN100,0.00,0.00,VWS V14.01,2013-05-23 06:16:00,
2013-05-23 02:20:00,63.2,59.9,29.74,WSW,254,4.0,5.0,89,0.00,,OVC100,0.00,0.00,VWS V14.01,2013-05-23 06:20:00,
2013-05-23 02:21:00,63.2,59.9,29.74,WSW,254,1.0,4.0,89,0.00,,BKN100,0.00,0.00,VWS V14.01,2013-05-23 06:21:00,
2013-05-23 02:26:00,63.2,59.9,29.74,WSW,244,4.0,5.0,89,0.00,,BKN100,0.00,0.00,VWS V14.01,2013-05-23 06:26:00,
2013-05-23 02:30:00,63.2,59.6,29.74,WSW,244,3.0,5.0,88,0.00,,OVC100,0.00,0.00,VWS V14.01,2013-05-23 06:30:00,
2013-05-23 02:31:00,63.2,59.6,29.74,WSW,244,3.0,4.0,88,0.00,,BKN100,0.00,0.00,VWS V14.01,2013-05-23 06:31:00,
2013-05-23 02:35:00,63.2,59.6,29.74,WSW,244,2.0,5.0,88,0.00,,OVC100,0.00,0.00,VWS V14.01,2013-05-23 06:35:00,
2013-05-23 02:36:00,63.2,59.6,29.74,WSW,244,0.0,7.0,88,0.00,,BKN100,0.00,0.00,VWS V14.01,2013-05-23 06:36:00,
2013-05-23 02:40:00,63.2,59.6,29.74,WSW,244,4.0,7.0,88,0.00,,OVC100,0.00,0.00,VWS V14.01,2013-05-23 06:40:00,
2013-05-23 02:41:00,63.2,59.6,29.74,WSW,244,5.0,6.0,88,0.00,,BKN100,0.00,0.00,VWS V14.01,2013-05-23 06:41:00,
2013-05-23 02:45:00,63.2,59.6,29.74,WSW,244,4.0,6.0,88,0.00,,OVC100,0.00,0.00,VWS V14.01,2013-05-23 06:45:00,
2013-05-23 02:46:00,63.2,59.6,29.74,WSW,244,3.0,4.0,88,0.00,,BKN100,0.00,0.00,VWS V14.01,2013-05-23 06:46:00,
2013-05-23 02:50:00,63.2,59.3,29.74,WSW,244,4.0,5.0,87,0.00,,OVC100,0.00,0.00,VWS V14.01,2013-05-23 06:50:00,
2013-05-23 02:51:00,63.2,59.3,29.74,WSW,244,2.0,5.0,87,0.00,,BKN100,0.00,0.00,VWS V14.01,2013-05-23 06:51:00,
2013-05-23 02:55:00,63.2,59.3,29.74,WSW,244,2.0,5.0,87,0.00,,OVC100,0.00,0.00,VWS V14.01,2013-05-23 06:55:00,
2013-05-23 02:56:00,63.2,59.3,29.74,WSW,244,5.0,5.0,87,0.00,,BKN100,0.00,0.00,VWS V14.01,2013-05-23 06:56:00,
2013-05-23 03:00:00,63.2,59.3,29.74,WSW,244,2.0,6.0,87,0.00,,OVC100,0.00,0.00,VWS V14.01,2013-05-23 07:00:00,
2013-05-23 03:01:00,63.2,59.3,29.74,WSW,244,2.0,3.0,87,0.00,,FEW120,0.00,0.00,VWS V14.01,2013-05-23 07:01:00,
2013-05-23 03:05:00,63.2,59.3,29.74,WSW,244,3.0,6.0,87,0.00,,OVC100,0.00,0.00,VWS V14.01,2013-05-23 07:05:00,
2013-05-23 03:06:00,63.2,59.3,29.74,WSW,244,2.0,4.0,87,0.00,,FEW120,0.00,0.00,VWS V14.01,2013-05-23 07:06:00,
2013-05-23 03:10:00,63.2,59.3,29.74,WSW,244,4.0,6.0,87,0.00,,OVC100,0.00,0.00,VWS V14.01,2013-05-23 07:10:00,
2013-05-23 03:11:00,63.2,59.3,29.74,WSW,244,5.0,7.0,87,0.00,,FEW120,0.00,0.00,VWS V14.01,2013-05-23 07:11:00,
2013-05-23 03:15:00,63.2,59.3,29.74,WSW,244,2.0,7.0,87,0.00,,OVC100,0.00,0.00,VWS V14.01,2013-05-23 07:15:00,
2013-05-23 03:16:00,63.2,59.3,29.74,WSW,244,3.0,3.0,87,0.00,,FEW120,0.00,0.00,VWS V14.01,2013-05-23 07:16:00,
2013-05-23 03:20:00,63.2,59.3,29.74,WSW,244,5.0,6.0,87,0.00,,OVC100,0.00,0.00,VWS V14.01,2013-05-23 07:20:00,
2013-05-23 03:21:00,63.2,59.3,29.74,WSW,244,3.0,5.0,87,0.00,,FEW120,0.00,0.00,VWS V14.01,2013-05-23 07:21:00,
2013-05-23 03:25:00,63.2,59.3,29.74,WSW,244,4.0,6.0,87,0.00,,OVC100,0.00,0.00,VWS V14.01,2013-05-23 07:25:00,
2013-05-23 03:26:00,63.2,59.0,29.74,WSW,244,2.0,4.0,86,0.00,,FEW120,0.00,0.00,VWS V14.01,2013-05-23 07:26:00,
2013-05-23 03:30:00,63.2,59.0,29.74,WSW,244,2.0,5.0,86,0.00,,OVC100,0.00,0.00,VWS V14.01,2013-05-23 07:30:00,
2013-05-23 03:31:00,63.2,59.0,29.74,WSW,244,0.0,2.0,86,0.00,,FEW120,0.00,0.00,VWS V14.01,2013-05-23 07:31:00,
2013-05-23 03:35:00,63.2,59.0,29.74,WSW,244,2.0,4.0,86,0.00,,OVC100,0.00,0.00,VWS V14.01,2013-05-23 07:35:00,
2013-05-23 03:36:00,63.2,59.0,29.74,WSW,244,0.0,2.0,86,0.00,,FEW120,0.00,0.00,VWS V14.01,2013-05-23 07:36:00,
2013-05-23 03:40:00,63.2,59.0,29.74,WSW,244,0.0,5.0,86,0.00,,OVC100,0.00,0.00,VWS V14.01,2013-05-23 07:40:00,
2013-05-23 03:41:00,63.2,59.0,29.74,WSW,244,1.0,1.0,86,0.00,,FEW120,0.00,0.00,VWS V14.01,2013-05-23 07:41:00,
2013-05-23 03:45:00,63.2,59.0,29.74,WSW,244,1.0,4.0,86,0.00,,OVC100,0.00,0.00,VWS V14.01,2013-05-23 07:45:00,
2013-05-23 03:46:00,63.2,59.0,29.74,WSW,244,0.0,2.0,86,0.00,,FEW120,0.00,0.00,VWS V14.01,2013-05-23 07:46:00,
2013-05-23 03:50:00,63.2,59.0,29.74,WSW,244,0.0,4.0,86,0.00,,OVC100,0.00,0.00,VWS V14.01,2013-05-23 07:50:00,
2013-05-23 03:51:00,63.2,59.0,29.74,WSW,244,2.0,2.0,86,0.00,,FEW120,0.00,0.00,VWS V14.01,2013-05-23 07:51:00,
2013-05-23 03:55:00,63.2,59.0,29.74,WSW,244,2.0,4.0,86,0.00,,OVC100,0.00,0.00,VWS V14.01,2013-05-23 07:55:00,
2013-05-23 03:56:00,63.2,59.0,29.74,WSW,244,2.0,4.0,86,0.00,,FEW120,0.00,0.00,VWS V14.01,2013-05-23 07:56:00,
2013-05-23 04:00:00,63.2,59.0,29.74,WSW,244,0.0,4.0,86,0.00,,OVC100,0.00,0.00,VWS V14.01,2013-05-23 08:00:00,
2013-05-23 04:01:00,63.2,59.0,29.74,WSW,244,2.0,3.0,86,0.00,,BKN080,0.00,0.00,VWS V14.01,2013-05-23 08:01:00,
2013-05-23 04:05:00,63.1,58.8,29.74,WSW,244,2.0,5.0,86,0.00,,OVC100,0.00,0.00,VWS V14.01,2013-05-23 08:05:00,
2013-05-23 04:06:00,63.1,58.8,29.74,WSW,244,0.0,2.0,86,0.00,,BKN080,0.00,0.00,VWS V14.01,2013-05-23 08:06:00,
2013-05-23 04:10:00,62.9,58.7,29.74,WSW,244,3.0,3.0,86,0.00,,OVC100,0.00,0.00,VWS V14.01,2013-05-23 08:10:00,
2013-05-23 04:11:00,62.9,58.7,29.74,WSW,244,2.0,4.0,86,0.00,,BKN080,0.00,0.00,VWS V14.01,2013-05-23 08:11:00,
2013-05-23 04:15:00,62.7,58.8,29.74,WSW,244,2.0,4.0,87,0.00,,OVC100,0.00,0.00,VWS V14.01,2013-05-23 08:15:00,
2013-05-23 04:16:00,62.7,58.8,29.74,WSW,244,1.0,2.0,87,0.00,,BKN080,0.00,0.00,VWS V14.01,2013-05-23 08:16:00,
2013-05-23 04:20:00,62.6,58.7,29.74,WSW,244,2.0,3.0,87,0.00,,OVC100,0.00,0.00,VWS V14.01,2013-05-23 08:20:00,
2013-05-23 04:21:00,62.6,58.7,29.74,WSW,244,1.0,2.0,87,0.00,,BKN080,0.00,0.00,VWS V14.01,2013-05-23 08:21:00,
2013-05-23 04:25:00,62.6,58.7,29.74,WSW,244,1.0,3.0,87,0.00,,OVC100,0.00,0.00,VWS V14.01,2013-05-23 08:25:00,
2013-05-23 04:26:00,62.6,58.7,29.74,WSW,244,2.0,4.0,87,0.00,,BKN080,0.00,0.00,VWS V14.01,2013-05-23 08:26:00,
2013-05-23 04:30:00,62.4,58.5,29.74,WSW,244,3.0,4.0,87,0.00,,OVC100,0.00,0.00,VWS V14.01,2013-05-23 08:30:00,
2013-05-23 04:31:00,62.4,58.5,29.74,WSW,244,2.0,3.0,87,0.00,,BKN080,0.00,0.00,VWS V14.01,2013-05-23 08:31:00,
2013-05-23 04:35:00,62.4,58.5,29.74,WSW,244,0.0,4.0,87,0.00,,OVC100,0.00,0.00,VWS V14.01,2013-05-23 08:35:00,
2013-05-23 04:36:00,62.4,58.5,29.74,WSW,244,3.0,3.0,87,0.00,,BKN080,0.00,0.00,VWS V14.01,2013-05-23 08:36:00,
2013-05-23 04:40:00,62.4,58.5,29.74,WSW,244,0.0,4.0,87,0.00,,OVC100,0.00,0.00,VWS V14.01,2013-05-23 08:40:00,
2013-05-23 04:41:00,62.4,58.5,29.74,WSW,244,5.0,5.0,87,0.00,,BKN080,0.00,0.00,VWS V14.01,2013-05-23 08:41:00,
2013-05-23 04:45:00,62.4,58.5,29.75,WSW,244,2.0,5.0,87,0.00,,OVC100,0.00,0.00,VWS V14.01,2013-05-23 08:45:00,
2013-05-23 04:46:00,62.4,58.5,29.75,WSW,244,2.0,4.0,87,0.00,,BKN080,0.00,0.00,VWS V14.01,2013-05-23 08:46:00,
2013-05-23 04:50:00,62.4,58.5,29.75,WSW,244,2.0,4.0,87,0.00,,OVC100,0.00,0.00,VWS V14.01,2013-05-23 08:50:00,
2013-05-23 04:51:00,62.4,58.5,29.75,WSW,244,2.0,4.0,87,0.00,,BKN080,0.00,0.00,VWS V14.01,2013-05-23 08:51:00,
2013-05-23 04:55:00,62.4,58.5,29.75,WSW,244,4.0,6.0,87,0.00,,OVC100,0.00,0.00,VWS V14.01,2013-05-23 08:55:00,
2013-05-23 04:56:00,62.4,58.5,29.75,WSW,244,3.0,4.0,87,0.00,,BKN080,0.00,0.00,VWS V14.01,2013-05-23 08:56:00,
2013-05-23 05:00:00,62.4,58.5,29.75,WSW,244,2.0,5.0,87,0.00,,OVC100,0.00,0.00,VWS V14.01,2013-05-23 09:00:00,
2013-05-23 05:01:00,62.4,58.5,29.75,WSW,244,5.0,5.0,87,0.00,,BKN100,0.00,0.00,VWS V14.01,2013-05-23 09:01:00,
2013-05-23 05:05:00,62.3,58.4,29.75,WSW,244,3.0,6.0,87,0.00,,OVC100,0.00,0.00,VWS V14.01,2013-05-23 09:05:00,
2013-05-23 05:06:00,62.3,58.4,29.75,WSW,244,2.0,4.0,87,0.00,,BKN100,0.00,0.00,VWS V14.01,2013-05-23 09:06:00,
2013-05-23 05:10:00,62.3,58.4,29.75,WSW,244,2.0,5.0,87,0.00,,OVC100,0.00,0.00,VWS V14.01,2013-05-23 09:10:00,
2013-05-23 05:11:00,62.1,58.2,29.75,WSW,244,2.0,3.0,87,0.00,,BKN100,0.00,0.00,VWS V14.01,2013-05-23 09:11:00,
2013-05-23 05:15:00,62.1,58.2,29.74,WSW,244,2.0,3.0,87,0.00,,OVC100,0.00,0.00,VWS V14.01,2013-05-23 09:15:00,
2013-05-23 05:16:00,62.1,58.2,29.74,WSW,244,3.0,4.0,87,0.00,,BKN100,0.00,0.00,VWS V14.01,2013-05-23 09:16:00,
2013-05-23 05:20:00,62.0,58.1,29.74,WSW,244,3.0,4.0,87,0.00,,OVC100,0.00,0.00,VWS V14.01,2013-05-23 09:20:00,
2013-05-23 05:21:00,62.0,58.1,29.74,WSW,244,2.0,4.0,87,0.00,,BKN100,0.00,0.00,VWS V14.01,2013-05-23 09:21:00,
2013-05-23 05:25:00,61.8,57.9,29.74,WSW,244,1.0,4.0,87,0.00,,OVC100,0.00,0.00,VWS V14.01,2013-05-23 09:25:00,
2013-05-23 05:26:00,61.8,57.9,29.74,WSW,244,1.0,1.0,87,0.00,,BKN100,0.00,0.00,VWS V14.01,2013-05-23 09:26:00,
2013-05-23 05:30:00,61.8,57.9,29.75,WSW,244,2.0,4.0,87,0.00,,OVC100,0.00,0.00,VWS V14.01,2013-05-23 09:30:00,
2013-05-23 05:31:00,61.8,58.2,29.75,WSW,244,4.0,4.0,88,0.00,,BKN100,0.00,0.00,VWS V14.01,2013-05-23 09:31:00,
2013-05-23 05:35:00,61.8,58.2,29.75,WSW,244,4.0,5.0,88,0.00,,OVC100,0.00,0.00,VWS V14.01,2013-05-23 09:35:00,
2013-05-23 05:36:00,61.8,58.2,29.75,WSW,244,4.0,5.0,88,0.00,,BKN100,0.00,0.00,VWS V14.01,2013-05-23 09:36:00,
2013-05-23 05:40:00,61.8,57.9,29.75,WSW,244,2.0,5.0,87,0.00,,OVC100,0.00,0.00,VWS V14.01,2013-05-23 09:40:00,
2013-05-23 05:41:00,61.8,57.9,29.75,WSW,244,0.0,3.0,87,0.00,,BKN100,0.00,0.00,VWS V14.01,2013-05-23 09:41:00,
2013-05-23 05:45:00,61.8,58.2,29.75,WSW,244,2.0,3.0,88,0.00,,OVC100,0.00,0.00,VWS V14.01,2013-05-23 09:45:00,
2013-05-23 05:46:00,61.8,58.2,29.75,WSW,244,2.0,3.0,88,0.00,,BKN100,0.00,0.00,VWS V14.01,2013-05-23 09:46:00,
2013-05-23 05:50:00,61.8,58.2,29.75,WSW,244,3.0,6.0,88,0.00,,OVC100,0.00,0.00,VWS V14.01,2013-05-23 09:50:00,
2013-05-23 05:51:00,61.8,58.2,29.75,WSW,244,3.0,4.0,88,0.00,,BKN100,0.00,0.00,VWS V14.01,2013-05-23 09:51:00,
2013-05-23 05:55:00,62.0,58.4,29.75,WSW,244,1.0,4.0,88,0.00,,OVC100,0.00,0.00,VWS V14.01,2013-05-23 09:55:00,
2013-05-23 05:56:00,62.0,58.4,29.75,WSW,244,3.0,3.0,88,0.00,,BKN100,0.00,0.00,VWS V14.01,2013-05-23 09:56:00,
2013-05-23 06:00:00,61.8,58.2,29.76,WSW,244,3.0,4.0,88,0.00,,OVC100,0.00,0.00,VWS V14.01,2013-05-23 10:00:00,
2013-05-23 06:01:00,61.8,58.2,29.76,WSW,244,3.0,3.0,88,0.00,,OVC110,0.00,0.00,VWS V14.01,2013-05-23 10:01:00,
2013-05-23 06:05:00,61.8,58.2,29.76,WSW,244,4.0,6.0,88,0.00,,OVC100,0.00,0.00,VWS V14.01,2013-05-23 10:05:00,
2013-05-23 06:06:00,61.8,58.2,29.76,WSW,244,4.0,4.0,88,0.00,,OVC110,0.00,0.00,VWS V14.01,2013-05-23 10:06:00,
2013-05-23 06:10:00,62.0,58.4,29.76,WSW,244,2.0,5.0,88,0.00,,OVC100,0.00,0.00,VWS V14.01,2013-05-23 10:10:00,
2013-05-23 06:11:00,62.0,58.4,29.76,WSW,244,4.0,4.0,88,0.00,,OVC110,0.00,0.00,VWS V14.01,2013-05-23 10:11:00,
2013-05-23 06:15:00,62.0,58.4,29.76,WSW,244,5.0,6.0,88,0.00,,OVC100,0.00,0.00,VWS V14.01,2013-05-23 10:15:00,
2013-05-23 06:16:00,62.0,58.4,29.76,WSW,244,3.0,5.0,88,0.00,,OVC110,0.00,0.00,VWS V14.01,2013-05-23 10:16:00,
2013-05-23 06:20:00,62.0,58.4,29.76,WSW,244,2.0,5.0,88,0.00,,OVC100,0.00,5.00,VWS V14.01,2013-05-23 10:20:00,
2013-05-23 06:21:00,62.0,58.4,29.76,WSW,244,0.0,2.0,88,0.00,,OVC110,0.00,5.00,VWS V14.01,2013-05-23 10:21:00,
2013-05-23 06:25:00,62.0,58.4,29.76,WSW,244,3.0,6.0,88,0.00,,OVC100,0.00,9.00,VWS V14.01,2013-05-23 10:25:00,
2013-05-23 06:26:00,62.0,58.4,29.76,WSW,244,3.0,3.0,88,0.00,,OVC110,0.00,9.00,VWS V14.01,2013-05-23 10:26:00,
2013-05-23 06:30:00,62.0,58.1,29.77,WSW,240,0.0,7.0,87,0.00,,OVC100,0.00,9.00,VWS V14.01,2013-05-23 10:30:00,
2013-05-23 06:31:00,62.0,58.1,29.77,WSW,240,3.0,3.0,87,0.00,,OVC110,0.00,9.00,VWS V14.01,2013-05-23 10:31:00,
2013-05-23 06:35:00,62.0,58.1,29.77,WSW,240,2.0,3.0,87,0.00,,OVC100,0.00,16.00,VWS V14.01,2013-05-23 10:35:00,
2013-05-23 06:36:00,62.1,58.2,29.77,WSW,240,0.0,3.0,87,0.00,,OVC110,0.00,16.00,VWS V14.01,2013-05-23 10:36:00,
2013-05-23 06:40:00,62.1,58.2,29.77,WSW,240,4.0,4.0,87,0.00,,OVC100,0.00,16.00,VWS V14.01,2013-05-23 10:40:00,
2013-05-23 06:41:00,62.1,58.2,29.77,WSW,240,0.0,4.0,87,0.00,,OVC110,0.00,16.00,VWS V14.01,2013-05-23 10:41:00,
2013-05-23 06:45:00,62.1,58.2,29.77,WSW,240,4.0,6.0,87,0.00,,OVC100,0.00,18.00,VWS V14.01,2013-05-23 10:45:00,
2013-05-23 06:46:00,62.1,58.2,29.77,WSW,240,3.0,4.0,87,0.00,,OVC110,0.00,18.00,VWS V14.01,2013-05-23 10:46:00,
2013-05-23 06:50:00,62.3,58.4,29.77,WSW,240,3.0,4.0,87,0.00,,OVC100,0.00,18.00,VWS V14.01,2013-05-23 10:50:00,
2013-05-23 06:51:00,62.3,58.4,29.77,WSW,240,5.0,5.0,87,0.00,,OVC110,0.00,18.00,VWS V14.01,2013-05-23 10:51:00,
2013-05-23 06:55:00,62.3,58.4,29.77,WSW,240,3.0,5.0,87,0.00,,OVC100,0.00,18.00,VWS V14.01,2013-05-23 10:55:00,
2013-05-23 06:56:00,62.3,58.4,29.77,WSW,240,2.0,3.0,87,0.00,,OVC110,0.00,18.00,VWS V14.01,2013-05-23 10:56:00,
2013-05-23 07:00:00,62.3,58.4,29.77,WSW,240,3.0,6.0,87,0.00,,OVC100,0.00,16.00,VWS V14.01,2013-05-23 11:00:00,
2013-05-23 07:01:00,62.3,58.4,29.77,WSW,240,3.0,5.0,87,0.00,,OVC090,0.00,18.00,VWS V14.01,2013-05-23 11:01:00,
2013-05-23 07:05:00,62.1,58.2,29.77,WSW,240,2.0,5.0,87,0.00,,OVC100,0.00,33.00,VWS V14.01,2013-05-23 11:05:00,
2013-05-23 07:06:00,62.1,58.2,29.77,WSW,240,2.0,3.0,87,0.00,,OVC090,0.00,42.00,VWS V14.01,2013-05-23 11:06:00,
2013-05-23 07:10:00,62.3,58.4,29.77,WSW,240,0.0,3.0,87,0.00,,OVC100,0.00,74.00,VWS V14.01,2013-05-23 11:10:00,
2013-05-23 07:11:00,62.3,58.4,29.77,WSW,240,1.0,1.0,87,0.00,,OVC090,0.00,74.00,VWS V14.01,2013-05-23 11:11:00,
2013-05-23 07:15:00,62.4,58.8,29.78,WSW,240,0.0,4.0,88,0.00,,OVC100,0.00,63.00,VWS V14.01,2013-05-23 11:15:00,
2013-05-23 07:16:00,62.4,58.8,29.78,WSW,240,4.0,4.0,88,0.00,,OVC090,0.00,63.00,VWS V14.01,2013-05-23 11:16:00,
2013-05-23 07:20:00,62.6,58.7,29.78,WSW,240,4.0,4.0,87,0.00,,OVC100,0.00,69.00,VWS V14.01,2013-05-23 11:20:00,
2013-05-23 07:21:00,62.6,58.7,29.78,WSW,240,3.0,4.0,87,0.00,,OVC090,0.00,70.00,VWS V14.01,2013-05-23 11:21:00,
2013-05-23 07:25:00,62.7,58.8,29.78,WSW,240,3.0,8.0,87,0.00,,OVC100,0.00,74.00,VWS V14.01,2013-05-23 11:25:00,
2013-05-23 07:26:00,62.7,58.8,29.78,WSW,240,2.0,3.0,87,0.00,,OVC090,0.00,70.00,VWS V14.01,2013-05-23 11:26:00,
2013-05-23 07:30:00,62.9,59.0,29.79,WSW,240,4.0,6.0,87,0.00,,OVC100,0.00,62.00,VWS V14.01,2013-05-23 11:30:00,
2013-05-23 07:31:00,62.9,59.0,29.79,WSW,240,6.0,6.0,87,0.00,,OVC090,0.00,62.00,VWS V14.01,2013-05-23 11:31:00,
2013-05-23 07:35:00,62.9,59.0,29.79,WSW,239,0.0,6.0,87,0.00,,OVC100,0.00,70.00,VWS V14.01,2013-05-23 11:35:00,
2013-05-23 07:36:00,62.9,59.0,29.79,WSW,239,4.0,5.0,87,0.00,,OVC090,0.00,74.00,VWS V14.01,2013-05-23 11:36:00,
2013-05-23 07:40:00,62.9,59.0,29.79,WSW,240,2.0,5.0,87,0.00,,OVC100,0.00,90.00,VWS V14.01,2013-05-23 11:40:00,
2013-05-23 07:41:00,63.1,59.2,29.79,WSW,240,2.0,5.0,87,0.00,,OVC090,0.00,90.00,VWS V14.01,2013-05-23 11:41:00,
2013-05-23 07:45:00,63.1,59.2,29.78,WSW,240,3.0,5.0,87,0.00,,OVC100,0.00,123.00,VWS V14.01,2013-05-23 11:45:00,
2013-05-23 07:46:00,63.1,59.2,29.78,WSW,240,3.0,4.0,87,0.00,,OVC090,0.00,123.00,VWS V14.01,2013-05-23 11:46:00,
2013-05-23 07:50:00,63.2,59.0,29.78,WSW,248,4.0,7.0,86,0.00,,OVC100,0.00,121.00,VWS V14.01,2013-05-23 11:50:00,
2013-05-23 07:51:00,63.4,59.2,29.78,WSW,248,3.0,4.0,86,0.00,,OVC090,0.00,113.00,VWS V14.01,2013-05-23 11:51:00,
2013-05-23 07:55:00,63.5,59.2,29.78,West,279,3.0,9.0,86,0.00,,OVC100,0.00,83.00,VWS V14.01,2013-05-23 11:55:00,
2013-05-23 07:56:00,63.5,59.2,29.78,West,277,5.0,5.0,86,0.00,,OVC090,0.00,81.00,VWS V14.01,2013-05-23 11:56:00,
2013-05-23 08:00:00,63.5,58.9,29.78,West,276,2.0,6.0,85,0.00,,OVC100,0.00,76.00,VWS V14.01,2013-05-23 12:00:00,
2013-05-23 08:01:00,63.5,58.9,29.78,West,261,6.0,6.0,85,0.00,,OVC085,0.00,76.00,VWS V14.01,2013-05-23 12:01:00,
2013-05-23 08:05:00,63.5,58.6,29.78,West,267,4.0,12.0,84,0.00,,OVC100,0.00,83.00,VWS V14.01,2013-05-23 12:05:00,
2013-05-23 08:06:00,63.5,58.6,29.78,West,273,6.0,8.0,84,0.00,,OVC085,0.00,84.00,VWS V14.01,2013-05-23 12:06:00,
2013-05-23 08:10:00,63.7,58.8,29.78,West,259,2.0,8.0,84,0.00,,OVC100,0.00,63.00,VWS V14.01,2013-05-23 12:10:00,
2013-05-23 08:11:00,63.7,58.8,29.78,West,259,0.0,3.0,84,0.00,,OVC085,0.00,62.00,VWS V14.01,2013-05-23 12:11:00,
2013-05-23 08:15:00,63.7,58.8,29.79,WNW,283,1.0,9.0,84,0.00,,OVC100,0.00,58.00,VWS V14.01,2013-05-23 12:15:00,
2013-05-23 08:16:00,63.7,58.8,29.79,WNW,283,4.0,4.0,84,0.00,,OVC085,0.00,58.00,VWS V14.01,2013-05-23 12:16:00,
2013-05-23 08:20:00,63.7,58.8,29.79,WNW,294,7.0,9.0,84,0.00,,OVC100,0.00,58.00,VWS V14.01,2013-05-23 12:20:00,
2013-05-23 08:21:00,63.7,58.8,29.79,WNW,292,0.0,7.0,84,0.00,,OVC085,0.00,58.00,VWS V14.01,2013-05-23 12:21:00,
2013-05-23 08:25:00,63.7,58.8,29.79,West,274,0.0,9.0,84,0.00,,OVC100,0.00,58.00,VWS V14.01,2013-05-23 12:25:00,
2013-05-23 08:26:00,63.7,58.8,29.79,West,274,3.0,4.0,84,0.00,,OVC085,0.00,58.00,VWS V14.01,2013-05-23 12:26:00,
2013-05-23 08:30:00,63.7,58.8,29.79,West,279,9.0,9.0,84,0.00,,OVC100,0.00,76.00,VWS V14.01,2013-05-23 12:30:00,
2013-05-23 08:31:00,63.7,58.8,29.79,WNW,294,4.0,10.0,84,0.00,,OVC085,0.00,76.00,VWS V14.01,2013-05-23 12:31:00,
2013-05-23 08:35:00,63.7,58.8,29.79,WNW,283,3.0,10.0,84,0.00,,OVC100,0.00,91.00,VWS V14.01,2013-05-23 12:35:00,
2013-05-23 08:36:00,63.7,58.8,29.79,WNW,282,3.0,3.0,84,0.00,,OVC085,0.00,97.00,VWS V14.01,2013-05-23 12:36:00,
2013-05-23 08:40:00,63.7,58.8,29.79,West,280,2.0,9.0,84,0.00,,OVC100,0.00,109.00,VWS V14.01,2013-05-23 12:40:00,
2013-05-23 08:41:00,63.7,58.8,29.79,West,267,4.0,5.0,84,0.00,,OVC085,0.00,111.00,VWS V14.01,2013-05-23 12:41:00,
2013-05-23 08:45:00,63.9,59.0,29.80,WSW,256,1.0,6.0,84,0.00,,OVC100,0.00,107.00,VWS V14.01,2013-05-23 12:45:00,
2013-05-23 08:46:00,63.9,59.0,29.80,WSW,256,0.0,1.0,84,0.00,,OVC085,0.00,107.00,VWS V14.01,2013-05-23 12:46:00,
2013-05-23 08:50:00,63.9,58.6,29.80,WSW,255,4.0,5.0,83,0.00,,OVC100,0.00,137.00,VWS V14.01,2013-05-23 12:50:00,
2013-05-23 08:51:00,63.9,58.6,29.80,WSW,254,4.0,5.0,83,0.00,,OVC085,0.00,137.00,VWS V14.01,2013-05-23 12:51:00,
2013-05-23 08:55:00,64.0,58.7,29.80,WSW,255,3.0,5.0,83,0.00,,OVC100,0.00,141.00,VWS V14.01,2013-05-23 12:55:00,
2013-05-23 08:56:00,64.0,58.7,29.80,WSW,255,2.0,3.0,83,0.00,,OVC085,0.00,141.00,VWS V14.01,2013-05-23 12:56:00,
2013-05-23 09:00:00,64.0,58.7,29.80,SW,235,0.0,7.0,83,0.00,,OVC100,0.00,144.00,VWS V14.01,2013-05-23 13:00:00,
2013-05-23 09:01:00,64.0,58.7,29.80,WSW,240,3.0,6.0,83,0.00,,OVC090,0.00,146.00,VWS V14.01,2013-05-23 13:01:00,
2013-05-23 09:05:00,64.2,58.9,29.80,WSW,240,2.0,6.0,83,0.00,,OVC100,0.00,165.00,VWS V14.01,2013-05-23 13:05:00,
2013-05-23 09:06:00,64.3,59.0,29.80,WSW,239,5.0,6.0,83,0.00,,OVC090,0.00,171.00,VWS V14.01,2013-05-23 13:06:00,
2013-05-23 09:10:00,64.3,59.0,29.80,WSW,240,3.0,6.0,83,0.00,,OVC100,0.00,183.00,VWS V14.01,2013-05-23 13:10:00,
2013-05-23 09:11:00,64.3,59.0,29.80,WSW,240,2.0,5.0,83,0.00,,OVC090,0.00,186.00,VWS V14.01,2013-05-23 13:11:00,
2013-05-23 09:15:00,64.7,59.4,29.80,WNW,293,6.0,8.0,83,0.00,,OVC100,0.00,202.00,VWS V14.01,2013-05-23 13:15:00,
2013-05-23 09:16:00,64.7,59.1,29.80,WNW,287,3.0,6.0,82,0.00,,OVC090,0.00,204.00,VWS V14.01,2013-05-23 13:16:00,
2013-05-23 09:20:00,64.7,59.1,29.80,SW,231,5.0,7.0,82,0.00,,OVC100,0.00,202.00,VWS V14.01,2013-05-23 13:20:00,
2013-05-23 09:21:00,64.7,58.7,29.80,SW,232,6.0,6.0,81,0.00,,OVC090,0.00,199.00,VWS V14.01,2013-05-23 13:21:00,
2013-05-23 09:25:00,64.8,58.8,29.80,SW,225,1.0,9.0,81,0.00,,OVC100,0.00,176.00,VWS V14.01,2013-05-23 13:25:00,
2013-05-23 09:26:00,64.8,58.8,29.80,West,271,6.0,6.0,81,0.00,,OVC090,0.00,176.00,VWS V14.01,2013-05-23 13:26:00,
2013-05-23 09:30:00,64.7,58.7,29.80,SW,229,5.0,10.0,81,0.00,,OVC100,0.00,192.00,VWS V14.01,2013-05-23 13:30:00,
2013-05-23 09:31:00,64.7,58.7,29.80,SW,229,3.0,5.0,81,0.00,,OVC090,0.00,197.00,VWS V14.01,2013-05-23 13:31:00,
2013-05-23 09:35:00,64.7,58.4,29.80,West,264,9.0,9.0,80,0.00,,OVC100,0.00,216.00,VWS V14.01,2013-05-23 13:35:00,
2013-05-23 09:36:00,64.7,58.4,29.80,WNW,284,6.0,9.0,80,0.00,,OVC090,0.00,218.00,VWS V14.01,2013-05-23 13:36:00,
2013-05-23 09:40:00,64.8,58.1,29.80,SW,229,5.0,9.0,79,0.00,,OVC100,0.00,209.00,VWS V14.01,2013-05-23 13:40:00,
2013-05-23 09:41:00,64.8,58.1,29.80,WNW,290,3.0,6.0,79,0.00,,OVC090,0.00,216.00,VWS V14.01,2013-05-23 13:41:00,
2013-05-23 09:45:00,65.0,58.3,29.80,SW,217,1.0,8.0,79,0.00,,OVC100,0.00,218.00,VWS V14.01,2013-05-23 13:45:00,
2013-05-23 09:46:00,65.0,58.3,29.80,WSW,243,6.0,6.0,79,0.00,,OVC090,0.00,227.00,VWS V14.01,2013-05-23 13:46:00,
2013-05-23 09:50:00,65.2,58.2,29.80,WNW,292,6.0,9.0,78,0.00,,OVC100,0.00,348.00,VWS V14.01,2013-05-23 13:50:00,
2013-05-23 09:51:00,65.2,58.2,29.80,WSW,246,5.0,7.0,78,0.00,,OVC090,0.00,348.00,VWS V14.01,2013-05-23 13:51:00,
2013-05-23 09:55:00,65.3,57.5,29.80,WSW,257,6.0,10.0,76,0.00,,OVC100,0.00,322.00,VWS V14.01,2013-05-23 13:55:00,
2013-05-23 09:56:00,65.5,57.7,29.80,WSW,254,8.0,9.0,76,0.00,,OVC090,0.00,323.00,VWS V14.01,2013-05-23 13:56:00,
2013-05-23 10:00:00,65.6,57.8,29.80,SW,236,5.0,10.0,76,0.00,,OVC100,0.00,373.00,VWS V14.01,2013-05-23 14:00:00,
2013-05-23 10:01:00,65.8,58.0,29.80,West,275,7.0,9.0,76,0.00,,OVC090,0.00,373.00,VWS V14.01,2013-05-23 14:01:00,
2013-05-23 10:05:00,66.0,57.5,29.80,NW,314,4.0,10.0,74,0.00,,OVC100,0.00,343.00,VWS V14.01,2013-05-23 14:05:00,
2013-05-23 10:06:00,66.0,57.5,29.80,WNW,290,7.0,7.0,74,0.00,,OVC090,0.00,338.00,VWS V14.01,2013-05-23 14:06:00,
2013-05-23 10:10:00,66.4,56.7,29.80,West,266,9.0,12.0,71,0.00,,OVC100,0.00,290.00,VWS V14.01,2013-05-23 14:10:00,
2013-05-23 10:11:00,66.4,56.7,29.80,West,262,10.0,10.0,71,0.00,,OVC090,0.00,281.00,VWS V14.01,2013-05-23 14:11:00,
2013-05-23 10:15:00,66.6,56.5,29.80,SW,234,2.0,10.0,70,0.00,,OVC100,0.00,294.00,VWS V14.01,2013-05-23 14:15:00,
2013-05-23 10:16:00,66.6,56.5,29.80,SW,228,3.0,6.0,70,0.00,,OVC090,0.00,302.00,VWS V14.01,2013-05-23 14:16:00,
2013-05-23 10:20:00,66.8,56.7,29.80,WSW,248,5.0,10.0,70,0.00,,OVC100,0.00,336.00,VWS V14.01,2013-05-23 14:20:00,
2013-05-23 10:21:00,66.8,56.7,29.80,SW,236,4.0,6.0,70,0.00,,OVC090,0.00,348.00,VWS V14.01,2013-05-23 14:21:00,
2013-05-23 10:25:00,66.8,56.7,29.80,SSW,207,7.0,12.0,70,0.00,,OVC100,0.00,362.00,VWS V14.01,2013-05-23 14:25:00,
2013-05-23 10:26:00,66.6,56.1,29.80,WSW,252,5.0,7.0,69,0.00,,OVC090,0.00,359.00,VWS V14.01,2013-05-23 14:26:00,
2013-05-23 10:30:00,66.8,56.7,29.81,WSW,248,1.0,10.0,70,0.00,,OVC100,0.00,311.00,VWS V14.01,2013-05-23 14:30:00,
2013-05-23 10:31:00,66.8,56.3,29.81,WSW,244,5.0,9.0,69,0.00,,OVC090,0.00,311.00,VWS V14.01,2013-05-23 14:31:00,
2013-05-23 10:35:00,66.4,55.5,29.81,SSW,213,10.0,11.0,68,0.00,,OVC100,0.00,253.00,VWS V14.01,2013-05-23 14:35:00,
2013-05-23 10:36:00,66.4,55.5,29.81,SW,214,6.0,10.0,68,0.00,,OVC090,0.00,253.00,VWS V14.01,2013-05-23 14:36:00,
2013-05-23 10:40:00,66.3,56.2,29.81,WSW,242,7.0,13.0,70,0.00,,OVC100,0.00,195.00,VWS V14.01,2013-05-23 14:40:00,
2013-05-23 10:41:00,66.3,56.2,29.81,West,259,6.0,10.0,70,0.00,,OVC090,0.00,195.00,VWS V14.01,2013-05-23 14:41:00,
2013-05-23 10:45:00,66.4,56.7,29.81,WNW,288,6.0,12.0,71,0.00,,OVC100,0.00,230.00,VWS V14.01,2013-05-23 14:45:00,
2013-05-23 10:46:00,66.4,56.7,29.81,West,269,10.0,11.0,71,0.00,,OVC090,0.00,211.00,VWS V14.01,2013-05-23 14:46:00,
2013-05-23 10:50:00,66.4,56.3,29.81,WSW,254,8.0,12.0,70,0.00,,OVC100,0.00,216.00,VWS V14.01,2013-05-23 14:50:00,
2013-05-23 10:51:00,66.4,56.3,29.81,SW,234,1.0,8.0,70,0.00,,OVC090,0.00,223.00,VWS V14.01,2013-05-23 14:51:00,
2013-05-23 10:55:00,66.3,56.2,29.81,West,276,4.0,9.0,70,0.00,,OVC100,0.00,292.00,VWS V14.01,2013-05-23 14:55:00,
2013-05-23 10:56:00,66.3,56.2,29.81,West,272,3.0,4.0,70,0.00,,OVC090,0.00,295.00,VWS V14.01,2013-05-23 14:56:00,
2013-05-23 11:00:00,66.6,56.5,29.81,West,277,13.0,13.0,70,0.00,,OVC100,0.00,306.00,VWS V14.01,2013-05-23 15:00:00,
2013-05-23 11:01:00,66.6,56.1,29.81,WNW,284,12.0,14.0,69,0.00,,OVC095,0.00,320.00,VWS V14.01,2013-05-23 15:01:00,
2013-05-23 11:05:00,66.9,56.4,29.81,WSW,256,7.0,14.0,69,0.00,,OVC100,0.00,338.00,VWS V14.01,2013-05-23 15:05:00,
2013-05-23 11:06:00,66.9,56.4,29.81,WNW,289,7.0,7.0,69,0.00,,OVC095,0.00,338.00,VWS V14.01,2013-05-23 15:06:00,
2013-05-23 11:10:00,67.1,55.8,29.81,WSW,249,5.0,9.0,67,0.00,,OVC100,0.00,383.00,VWS V14.01,2013-05-23 15:10:00,
2013-05-23 11:11:00,67.3,56.0,29.81,WSW,242,6.0,8.0,67,0.00,,OVC095,0.00,383.00,VWS V14.01,2013-05-23 15:11:00,
2013-05-23 11:15:00,67.4,55.7,29.81,West,261,8.0,15.0,66,0.00,,OVC100,0.00,392.00,VWS V14.01,2013-05-23 15:15:00,
2013-05-23 11:16:00,67.4,55.7,29.81,West,263,11.0,11.0,66,0.00,,OVC095,0.00,388.00,VWS V14.01,2013-05-23 15:16:00,
2013-05-23 11:20:00,67.6,55.8,29.81,West,281,7.0,14.0,66,0.00,,OVC100,0.00,422.00,VWS V14.01,2013-05-23 15:20:00,
2013-05-23 11:21:00,67.6,55.8,29.81,WNW,282,10.0,14.0,66,0.00,,OVC095,0.00,469.00,VWS V14.01,2013-05-23 15:21:00,
2013-05-23 11:25:00,67.9,56.1,29.81,West,279,12.0,14.0,66,0.00,,OVC100,0.00,640.00,VWS V14.01,2013-05-23 15:25:00,
2013-05-23 11:26:00,68.1,56.3,29.81,WNW,282,7.0,12.0,66,0.00,,OVC095,0.00,640.00,VWS V14.01,2013-05-23 15:26:00,
2013-05-23 11:30:00,68.6,56.4,29.81,WNW,291,10.0,13.0,65,0.00,,OVC100,0.00,1005.00,VWS V14.01,2013-05-23 15:30:00,
2013-05-23 11:31:00,68.8,57.0,29.81,WNW,287,9.0,10.0,66,0.00,,OVC095,0.00,1005.00,VWS V14.01,2013-05-23 15:31:00,
2013-05-23 11:35:00,69.4,56.3,29.81,SW,234,5.0,10.0,63,0.00,,OVC100,0.00,584.00,VWS V14.01,2013-05-23 15:35:00,
2013-05-23 11:36:00,69.4,56.3,29.81,SW,234,3.0,5.0,63,0.00,,OVC095,0.00,584.00,VWS V14.01,2013-05-23 15:36:00,
2013-05-23 11:40:00,69.6,55.6,29.81,SW,236,4.0,10.0,61,0.00,,OVC100,0.00,519.00,VWS V14.01,2013-05-23 15:40:00,
2013-05-23 11:41:00,69.6,56.5,29.81,WSW,242,0.0,6.0,63,0.00,,OVC095,0.00,519.00,VWS V14.01,2013-05-23 15:41:00,
2013-05-23 11:45:00,69.9,56.3,29.80,SW,215,3.0,11.0,62,0.00,,OVC100,0.00,902.00,VWS V14.01,2013-05-23 15:45:00,
2013-05-23 11:46:00,69.9,56.3,29.80,SW,221,8.0,9.0,62,0.00,,OVC095,0.00,902.00,VWS V14.01,2013-05-23 15:46:00,
2013-05-23 11:50:00,69.3,55.7,29.80,West,267,7.0,9.0,62,0.00,,OVC100,0.00,185.00,VWS V14.01,2013-05-23 15:50:00,
2013-05-23 11:51:00,69.1,56.0,29.80,WSW,253,5.0,8.0,63,0.00,,OVC095,0.00,156.00,VWS V14.01,2013-05-23 15:51:00,
2013-05-23 11:55:00,68.8,56.6,29.80,WNW,298,5.0,15.0,65,0.00,,OVC100,0.00,88.00,VWS V14.01,2013-05-23 15:55:00,
2013-05-23 11:56:00,68.6,56.4,29.80,West,270,7.0,9.0,65,0.01,,OVC095,0.01,104.00,VWS V14.01,2013-05-23 15:56:00,
2013-05-23 12:00:00,67.8,57.3,29.81,WSW,254,7.0,15.0,69,0.01,,OVC100,0.01,165.00,VWS V14.01,2013-05-23 16:00:00,
2013-05-23 12:01:00,67.6,57.1,29.81,West,279,8.0,15.0,69,0.01,,BKN045,0.01,176.00,VWS V14.01,2013-05-23 16:01:00,
2013-05-23 12:05:00,67.1,57.0,29.81,West,280,9.0,15.0,70,0.01,,OVC100,0.01,232.00,VWS V14.01,2013-05-23 16:05:00,
2013-05-23 12:06:00,66.9,56.8,29.81,NW,305,11.0,11.0,70,0.01,,BKN045,0.01,241.00,VWS V14.01,2013-05-23 16:06:00,
2013-05-23 12:10:00,66.6,56.9,29.81,WNW,288,6.0,11.0,71,0.01,,OVC100,0.01,267.00,VWS V14.01,2013-05-23 16:10:00,
2013-05-23 12:11:00,66.4,57.1,29.81,WNW,290,7.0,7.0,72,0.01,,BKN045,0.01,278.00,VWS V14.01,2013-05-23 16:11:00,
2013-05-23 12:15:00,66.4,57.5,29.81,WSW,240,3.0,7.0,73,0.01,,OVC100,0.01,309.00,VWS V14.01,2013-05-23 16:15:00,
2013-05-23 12:16:00,66.4,57.9,29.81,WSW,239,3.0,6.0,74,0.01,,BKN045,0.01,315.00,VWS V14.01,2013-05-23 16:16:00,
2013-05-23 12:20:00,66.4,57.9,29.81,West,260,5.0,11.0,74,0.01,,OVC100,0.01,494.00,VWS V14.01,2013-05-23 16:20:00,
2013-05-23 12:21:00,66.4,57.9,29.81,SSW,212,7.0,8.0,74,0.01,,BKN045,0.01,494.00,VWS V14.01,2013-05-23 16:21:00,
2013-05-23 12:25:00,66.9,57.6,29.81,West,277,5.0,11.0,72,0.01,,OVC100,0.01,494.00,VWS V14.01,2013-05-23 16:25:00,
2013-05-23 12:26:00,67.1,57.8,29.81,WNW,290,5.0,8.0,72,0.01,,BKN045,0.01,510.00,VWS V14.01,2013-05-23 16:26:00,
2013-05-23 12:30:00,67.9,58.5,29.80,WSW,258,8.0,10.0,72,0.01,,OVC100,0.01,1234.00,VWS V14.01,2013-05-23 16:30:00,
2013-05-23 12:31:00,68.3,58.9,29.80,WNW,286,13.0,13.0,72,0.01,,BKN045,0.01,1257.00,VWS V14.01,2013-05-23 16:31:00,
2013-05-23 12:35:00,69.1,56.4,29.80,WSW,250,6.0,14.0,64,0.01,,OVC100,0.01,1146.00,VWS V14.01,2013-05-23 16:35:00,
2013-05-23 12:36:00,69.3,57.0,29.80,WNW,298,7.0,9.0,65,0.01,,BKN045,0.01,1146.00,VWS V14.01,2013-05-23 16:36:00,
2013-05-23 12:40:00,70.3,58.0,29.80,NW,313,11.0,12.0,65,0.01,,OVC100,0.01,881.00,VWS V14.01,2013-05-23 16:40:00,
2013-05-23 12:41:00,70.3,57.6,29.80,NW,308,6.0,11.0,64,0.01,,BKN045,0.01,478.00,VWS V14.01,2013-05-23 16:41:00,
2013-05-23 12:45:00,70.3,56.7,29.80,WNW,298,2.0,11.0,62,0.01,,OVC100,0.01,425.00,VWS V14.01,2013-05-23 16:45:00,
2013-05-23 12:46:00,70.1,56.0,29.80,WNW,297,9.0,9.0,61,0.01,,BKN045,0.01,438.00,VWS V14.01,2013-05-23 16:46:00,
2013-05-23 12:50:00,69.8,57.1,29.80,West,262,1.0,11.0,64,0.01,,OVC100,0.01,403.00,VWS V14.01,2013-05-23 16:50:00,
2013-05-23 12:51:00,69.8,56.7,29.80,West,262,0.0,5.0,63,0.01,,BKN045,0.01,396.00,VWS V14.01,2013-05-23 16:51:00,
2013-05-23 12:55:00,69.8,57.5,29.80,NW,313,14.0,15.0,65,0.01,,OVC100,0.01,418.00,VWS V14.01,2013-05-23 16:55:00,
2013-05-23 12:56:00,69.6,56.5,29.80,WNW,293,6.0,15.0,63,0.01,,BKN045,0.01,418.00,VWS V14.01,2013-05-23 16:56:00,
2013-05-23 13:00:00,69.3,56.2,29.80,WNW,282,5.0,15.0,63,0.01,,OVC100,0.01,464.00,VWS V14.01,2013-05-23 17:00:00,
2013-05-23 13:01:00,69.3,56.2,29.80,West,277,13.0,13.0,63,0.00,,BKN110,0.01,476.00,VWS V14.01,2013-05-23 17:01:00,
2013-05-23 13:05:00,69.1,56.4,29.80,West,271,6.0,13.0,64,0.00,,OVC100,0.01,378.00,VWS V14.01,2013-05-23 17:05:00,
2013-05-23 13:06:00,69.1,56.4,29.80,WNW,292,3.0,15.0,64,0.00,,BKN110,0.01,327.00,VWS V14.01,2013-05-23 17:06:00,
2013-05-23 13:10:00,68.9,55.8,29.80,West,275,7.0,15.0,63,0.00,,OVC100,0.01,153.00,VWS V14.01,2013-05-23 17:10:00,
2013-05-23 13:11:00,68.8,56.1,29.80,NW,308,11.0,11.0,64,0.00,,BKN110,0.01,149.00,VWS V14.01,2013-05-23 17:11:00,
2013-05-23 13:15:00,68.4,56.2,29.80,WNW,296,6.0,13.0,65,0.00,,OVC100,0.01,204.00,VWS V14.01,2013-05-23 17:15:00,
2013-05-23 13:16:00,68.3,56.1,29.80,West,273,8.0,8.0,65,0.00,,BKN110,0.01,221.00,VWS V14.01,2013-05-23 17:16:00,
2013-05-23 13:20:00,67.9,56.1,29.80,WNW,291,5.0,15.0,66,0.00,,OVC100,0.01,327.00,VWS V14.01,2013-05-23 17:20:00,
2013-05-23 13:21:00,67.9,56.1,29.80,West,279,7.0,7.0,66,0.00,,BKN110,0.01,334.00,VWS V14.01,2013-05-23 17:21:00,
2013-05-23 13:25:00,67.9,56.5,29.80,West,266,5.0,8.0,67,0.00,,OVC100,0.01,327.00,VWS V14.01,2013-05-23 17:25:00,
2013-05-23 13:26:00,68.1,56.7,29.80,WSW,246,7.0,8.0,67,0.00,,BKN110,0.01,348.00,VWS V14.01,2013-05-23 17:26:00,
2013-05-23 13:30:00,68.3,56.5,29.80,WSW,242,9.0,12.0,66,0.00,,OVC100,0.01,308.00,VWS V14.01,2013-05-23 17:30:00,
2013-05-23 13:31:00,68.3,56.5,29.80,West,273,6.0,14.0,66,0.00,,BKN110,0.01,308.00,VWS V14.01,2013-05-23 17:31:00,
2013-05-23 13:35:00,68.4,56.2,29.80,West,276,9.0,14.0,65,0.00,,OVC100,0.01,265.00,VWS V14.01,2013-05-23 17:35:00,
2013-05-23 13:36:00,68.4,56.6,29.80,West,274,10.0,13.0,66,0.00,,BKN110,0.01,272.00,VWS V14.01,2013-05-23 17:36:00,
2013-05-23 13:40:00,68.3,56.9,29.80,NW,324,5.0,13.0,67,0.00,,OVC100,0.01,366.00,VWS V14.01,2013-05-23 17:40:00,
2013-05-23 13:41:00,68.3,56.9,29.80,West,276,5.0,9.0,67,0.00,,BKN110,0.01,366.00,VWS V14.01,2013-05-23 17:41:00,
2013-05-23 13:45:00,68.3,57.3,29.80,WNW,291,9.0,15.0,68,0.00,,OVC100,0.01,424.00,VWS V14.01,2013-05-23 17:45:00,
2013-05-23 13:46:00,68.3,57.3,29.80,WNW,300,9.0,9.0,68,0.00,,BKN110,0.01,455.00,VWS V14.01,2013-05-23 17:46:00,
2013-05-23 13:50:00,68.1,55.9,29.80,NW,326,5.0,16.0,65,0.00,,OVC100,0.01,608.00,VWS V14.01,2013-05-23 17:50:00,
2013-05-23 13:51:00,68.1,56.3,29.80,NW,313,5.0,14.0,66,0.00,,BKN110,0.01,779.00,VWS V14.01,2013-05-23 17:51:00,
2013-05-23 13:55:00,68.3,56.5,29.80,NW,314,10.0,14.0,66,0.00,,OVC100,0.01,420.00,VWS V14.01,2013-05-23 17:55:00,
2013-05-23 13:56:00,68.3,56.5,29.80,NW,304,3.0,14.0,66,0.00,,BKN110,0.01,475.00,VWS V14.01,2013-05-23 17:56:00,
2013-05-23 14:00:00,68.4,57.4,29.80,WNW,284,8.0,14.0,68,0.00,,OVC100,0.01,352.00,VWS V14.01,2013-05-23 18:00:00,
2013-05-23 14:01:00,68.4,57.4,29.80,SSW,194,1.0,10.0,68,0.00,,BKN090,0.01,308.00,VWS V14.01,2013-05-23 18:01:00,
2013-05-23 14:05:00,68.1,57.6,29.80,West,264,13.0,13.0,69,0.00,,OVC100,0.01,253.00,VWS V14.01,2013-05-23 18:05:00,
2013-05-23 14:06:00,67.9,57.8,29.80,WNW,293,11.0,13.0,70,0.00,,BKN090,0.01,285.00,VWS V14.01,2013-05-23 18:06:00,
2013-05-23 14:10:00,67.3,57.6,29.80,West,273,9.0,15.0,71,0.00,,OVC100,0.01,318.00,VWS V14.01,2013-05-23 18:10:00,
2013-05-23 14:11:00,67.1,57.8,29.80,WNW,298,8.0,10.0,72,0.00,,BKN090,0.01,294.00,VWS V14.01,2013-05-23 18:11:00,
2013-05-23 14:15:00,66.8,57.9,29.81,WSW,253,7.0,11.0,73,0.00,,OVC100,0.01,308.00,VWS V14.01,2013-05-23 18:15:00,
2013-05-23 14:16:00,66.6,57.7,29.81,West,259,7.0,9.0,73,0.00,,BKN090,0.01,302.00,VWS V14.01,2013-05-23 18:16:00,
2013-05-23 14:20:00,66.6,57.7,29.81,West,268,3.0,14.0,73,0.00,,OVC100,0.01,265.00,VWS V14.01,2013-05-23 18:20:00,
2013-05-23 14:21:00,66.4,57.5,29.81,NW,314,4.0,6.0,73,0.00,,BKN090,0.01,258.00,VWS V14.01,2013-05-23 18:21:00,
2013-05-23 14:25:00,66.3,57.8,29.81,WNW,287,7.0,12.0,74,0.00,,OVC100,0.01,290.00,VWS V14.01,2013-05-23 18:25:00,
2013-05-23 14:26:00,66.3,57.8,29.81,WNW,283,6.0,9.0,74,0.00,,BKN090,0.01,301.00,VWS V14.01,2013-05-23 18:26:00,
2013-05-23 14:30:00,66.3,57.4,29.81,NW,317,5.0,12.0,73,0.00,,OVC100,0.01,294.00,VWS V14.01,2013-05-23 18:30:00,
2013-05-23 14:31:00,66.3,57.4,29.81,NNW,330,4.0,6.0,73,0.00,,BKN090,0.01,283.00,VWS V14.01,2013-05-23 18:31:00,
2013-05-23 14:35:00,66.4,57.9,29.81,WNW,285,5.0,8.0,74,0.00,,OVC100,0.01,155.00,VWS V14.01,2013-05-23 18:35:00,
2013-05-23 14:36:00,66.4,58.2,29.81,NW,321,5.0,8.0,75,0.00,,BKN090,0.01,148.00,VWS V14.01,2013-05-23 18:36:00,
2013-05-23 14:40:00,66.4,57.5,29.81,WNW,299,9.0,13.0,73,0.00,,OVC100,0.01,62.00,VWS V14.01,2013-05-23 18:40:00,
2013-05-23 14:41:00,66.3,57.0,29.81,NW,317,8.0,12.0,72,0.00,,BKN090,0.01,44.00,VWS V14.01,2013-05-23 18:41:00,
2013-05-23 14:45:00,60.9,53.3,29.83,North,360,6.0,31.0,76,0.00,,OVC100,0.01,21.00,VWS V14.01,2013-05-23 18:45:00,
2013-05-23 14:46:00,60.1,53.2,29.83,NNE,17,16.0,22.0,78,0.00,,BKN090,0.01,19.00,VWS V14.01,2013-05-23 18:46:00,
2013-05-23 14:50:00,57.5,52.1,29.83,North,9,15.0,22.0,82,0.00,,OVC100,0.01,11.00,VWS V14.01,2013-05-23 18:50:00,
2013-05-23 14:51:00,57.0,51.9,29.83,NE,38,15.0,16.0,83,0.00,,BKN090,0.01,12.00,VWS V14.01,2013-05-23 18:51:00,
2013-05-23 14:55:00,55.7,51.6,29.83,NE,45,17.0,17.0,86,0.05,,OVC100,0.06,19.00,VWS V14.01,2013-05-23 18:55:00,
2013-05-23 14:56:00,55.4,51.6,29.83,NE,42,4.0,17.0,87,0.06,,BKN090,0.07,21.00,VWS V14.01,2013-05-23 18:56:00,
2013-05-23 15:00:00,54.7,51.2,29.86,North,360,12.0,18.0,88,0.09,,OVC100,0.10,28.00,VWS V14.01,2013-05-23 19:00:00,
2013-05-23 15:01:00,54.4,51.2,29.86,NNE,17,12.0,12.0,89,0.09,,RA,0.10,26.00,VWS V14.01,2013-05-23 19:01:00,
2013-05-23 15:05:00,53.6,50.7,29.86,NNE,19,5.0,16.0,90,0.10,,OVC100,0.11,35.00,VWS V14.01,2013-05-23 19:05:00,
2013-05-23 15:06:00,53.6,50.7,29.86,NNE,19,3.0,5.0,90,0.11,,RA,0.12,33.00,VWS V14.01,2013-05-23 19:06:00,
2013-05-23 15:10:00,53.1,50.2,29.86,NE,55,8.0,10.0,90,0.12,,OVC100,0.13,37.00,VWS V14.01,2013-05-23 19:10:00,
2013-05-23 15:11:00,53.1,50.5,29.86,NNW,337,11.0,14.0,91,0.12,,RA,0.13,37.00,VWS V14.01,2013-05-23 19:11:00,
2013-05-23 15:15:00,52.8,50.2,29.87,NNE,20,2.0,14.0,91,0.12,,OVC100,0.13,47.00,VWS V14.01,2013-05-23 19:15:00,
2013-05-23 15:16:00,52.8,50.2,29.87,NNE,15,4.0,6.0,91,0.12,,RA,0.13,39.00,VWS V14.01,2013-05-23 19:16:00,
2013-05-23 15:20:00,52.8,50.2,29.87,NNE,22,7.0,14.0,91,0.12,,OVC100,0.13,49.00,VWS V14.01,2013-05-23 19:20:00,
2013-05-23 15:21:00,52.8,50.2,29.87,NNW,348,6.0,9.0,91,0.12,,RA,0.13,49.00,VWS V14.01,2013-05-23 19:21:00,
2013-05-23 15:25:00,52.6,50.0,29.87,NNE,14,4.0,12.0,91,0.12,,OVC100,0.13,49.00,VWS V14.01,2013-05-23 19:25:00,
2013-05-23 15:26:00,52.6,50.0,29.87,NE,42,7.0,10.0,91,0.12,,RA,0.13,58.00,VWS V14.01,2013-05-23 19:26:00,
2013-05-23 15:30:00,52.2,49.7,29.89,North,360,3.0,14.0,91,0.12,,OVC100,0.13,72.00,VWS V14.01,2013-05-23 19:30:00,
2013-05-23 15:31:00,52.2,49.7,29.89,North,360,5.0,13.0,91,0.13,,RA,0.14,76.00,VWS V14.01,2013-05-23 19:31:00,
2013-05-23 15:35:00,52.2,49.7,29.89,NNE,14,6.0,13.0,91,0.13,,OVC100,0.14,111.00,VWS V14.01,2013-05-23 19:35:00,
2013-05-23 15:36:00,52.2,49.7,29.89,NE,38,12.0,12.0,91,0.13,,RA,0.14,130.00,VWS V14.01,2013-05-23 19:36:00,
2013-05-23 15:40:00,52.0,49.2,29.89,NE,38,5.0,16.0,90,0.13,,OVC100,0.14,155.00,VWS V14.01,2013-05-23 19:40:00,
2013-05-23 15:41:00,52.2,49.4,29.89,NNE,23,6.0,6.0,90,0.13,,RA,0.14,142.00,VWS V14.01,2013-05-23 19:41:00,
2013-05-23 15:45:00,52.3,49.8,29.89,NNE,22,7.0,9.0,91,0.13,,OVC100,0.14,123.00,VWS V14.01,2013-05-23 19:45:00,
2013-05-23 15:46:00,52.5,49.7,29.89,NNE,30,5.0,11.0,90,0.13,,RA,0.14,125.00,VWS V14.01,2013-05-23 19:46:00,
2013-05-23 15:50:00,52.0,48.9,29.89,NE,40,13.0,15.0,89,0.13,,OVC100,0.14,83.00,VWS V14.01,2013-05-23 19:50:00,
2013-05-23 15:51:00,51.9,48.8,29.89,NNE,25,5.0,13.0,89,0.13,,RA,0.14,84.00,VWS V14.01,2013-05-23 19:51:00,
2013-05-23 15:55:00,51.6,48.5,29.89,NNE,20,7.0,13.0,89,0.13,,OVC100,0.14,72.00,VWS V14.01,2013-05-23 19:55:00,
2013-05-23 15:56:00,51.6,48.5,29.89,NNE,31,8.0,10.0,89,0.08,,RA,0.14,63.00,VWS V14.01,2013-05-23 19:56:00,
2013-05-23 16:00:00,51.6,48.5,29.90,NNE,22,5.0,10.0,89,0.08,,OVC100,0.14,76.00,VWS V14.01,2013-05-23 20:00:00,
2013-05-23 16:01:00,51.6,48.5,29.90,NNE,19,6.0,11.0,89,0.04,,OVC018,0.14,81.00,VWS V14.01,2013-05-23 20:01:00,
2013-05-23 16:05:00,51.3,48.2,29.90,NNE,21,5.0,12.0,89,0.04,,OVC100,0.14,51.00,VWS V14.01,2013-05-23 20:05:00,
2013-05-23 16:06:00,51.3,48.2,29.90,NNE,31,4.0,10.0,89,0.03,,OVC018,0.14,49.00,VWS V14.01,2013-05-23 20:06:00,
2013-05-23 16:10:00,51.1,48.3,29.90,NNE,19,7.0,13.0,90,0.03,,OVC100,0.14,42.00,VWS V14.01,2013-05-23 20:10:00,
2013-05-23 16:11:00,51.1,48.3,29.90,North,360,5.0,7.0,90,0.01,,OVC018,0.14,53.00,VWS V14.01,2013-05-23 20:11:00,
2013-05-23 16:15:00,51.1,48.3,29.92,North,349,5.0,11.0,90,0.01,,OVC100,0.14,54.00,VWS V14.01,2013-05-23 20:15:00,
2013-05-23 16:16:00,51.0,48.2,29.92,NE,40,6.0,10.0,90,0.01,,OVC018,0.14,54.00,VWS V14.01,2013-05-23 20:16:00,
2013-05-23 16:20:00,50.5,47.4,29.92,NNE,19,5.0,12.0,89,0.01,,OVC100,0.14,76.00,VWS V14.01,2013-05-23 20:20:00,
2013-05-23 16:21:00,50.5,47.7,29.92,NNE,17,7.0,11.0,90,0.01,,OVC018,0.14,79.00,VWS V14.01,2013-05-23 20:21:00,
2013-05-23 16:25:00,50.4,47.3,29.92,NNE,19,9.0,12.0,89,0.01,,OVC100,0.14,79.00,VWS V14.01,2013-05-23 20:25:00,
2013-05-23 16:26:00,50.4,47.3,29.92,North,9,4.0,9.0,89,0.01,,OVC018,0.14,95.00,VWS V14.01,2013-05-23 20:26:00,
2013-05-23 16:30:00,50.5,47.4,29.92,NNE,19,4.0,12.0,89,0.01,,OVC100,0.14,70.00,VWS V14.01,2013-05-23 20:30:00,
2013-05-23 16:31:00,50.5,47.4,29.92,NNW,339,9.0,11.0,89,0.01,,OVC018,0.14,65.00,VWS V14.01,2013-05-23 20:31:00,
2013-05-23 16:35:00,50.4,47.3,29.92,North,360,5.0,11.0,89,0.01,,OVC100,0.14,60.00,VWS V14.01,2013-05-23 20:35:00,
2013-05-23 16:36:00,50.4,47.3,29.92,NNE,15,6.0,7.0,89,0.00,,OVC018,0.14,56.00,VWS V14.01,2013-05-23 20:36:00,
2013-05-23 16:40:00,49.9,46.8,29.92,NNW,342,6.0,11.0,89,0.00,,OVC100,0.14,49.00,VWS V14.01,2013-05-23 20:40:00,
2013-05-23 16:41:00,49.9,46.8,29.92,NNW,346,5.0,10.0,89,0.00,,OVC018,0.14,54.00,VWS V14.01,2013-05-23 20:41:00,
2013-05-23 16:45:00,49.5,46.1,29.93,North,360,5.0,12.0,88,0.00,,OVC100,0.14,98.00,VWS V14.01,2013-05-23 20:45:00,
2013-05-23 16:46:00,49.5,46.1,29.93,North,360,6.0,7.0,88,0.00,,OVC018,0.14,100.00,VWS V14.01,2013-05-23 20:46:00,
2013-05-23 16:50:00,49.6,46.5,29.93,NNE,14,3.0,10.0,89,0.00,,OVC100,0.14,151.00,VWS V14.01,2013-05-23 20:50:00,
2013-05-23 16:51:00,49.6,46.5,29.93,North,351,3.0,12.0,89,0.00,,OVC018,0.14,155.00,VWS V14.01,2013-05-23 20:51:00,
2013-05-23 16:55:00,49.5,46.1,29.93,NE,43,4.0,13.0,88,0.00,,OVC100,0.14,97.00,VWS V14.01,2013-05-23 20:55:00,
2013-05-23 16:56:00,49.5,46.1,29.93,NNE,33,8.0,11.0,88,0.00,,OVC018,0.14,86.00,VWS V14.01,2013-05-23 20:56:00,
2013-05-23 17:00:00,49.4,46.0,29.94,NNE,22,4.0,11.0,88,0.00,,OVC100,0.14,58.00,VWS V14.01,2013-05-23 21:00:00,
2013-05-23 17:01:00,49.4,46.0,29.94,North,360,9.0,9.0,88,0.00,,-RA,0.14,62.00,VWS V14.01,2013-05-23 21:01:00,
2013-05-23 17:05:00,49.4,46.0,29.94,North,351,5.0,9.0,88,0.00,,OVC100,0.14,62.00,VWS V14.01,2013-05-23 21:05:00,
2013-05-23 17:06:00,49.4,46.0,29.94,North,360,3.0,5.0,88,0.00,,-RA,0.14,79.00,VWS V14.01,2013-05-23 21:06:00,
2013-05-23 17:10:00,49.4,46.3,29.94,North,351,10.0,11.0,89,0.00,,OVC100,0.14,97.00,VWS V14.01,2013-05-23 21:10:00,
2013-05-23 17:11:00,49.4,46.0,29.94,North,10,6.0,11.0,88,0.00,,-RA,0.14,109.00,VWS V14.01,2013-05-23 21:11:00,
2013-05-23 17:15:00,49.2,45.8,29.95,NNW,333,0.0,13.0,88,0.00,,OVC100,0.14,74.00,VWS V14.01,2013-05-23 21:15:00,
2013-05-23 17:16:00,49.2,45.8,29.95,NNW,332,8.0,14.0,88,0.00,,-RA,0.14,74.00,VWS V14.01,2013-05-23 21:16:00,
2013-05-23 17:20:00,48.9,45.8,29.95,NNW,339,3.0,14.0,89,0.01,,OVC100,0.15,102.00,VWS V14.01,2013-05-23 21:20:00,
2013-05-23 17:21:00,48.8,45.4,29.95,North,360,7.0,11.0,88,0.01,,-RA,0.15,107.00,VWS V14.01,2013-05-23 21:21:00,
2013-05-23 17:25:00,48.8,45.7,29.95,North,360,6.0,13.0,89,0.01,,OVC100,0.15,93.00,VWS V14.01,2013-05-23 21:25:00,
2013-05-23 17:26:00,48.8,45.7,29.95,NE,51,8.0,9.0,89,0.01,,-RA,0.15,114.00,VWS V14.01,2013-05-23 21:26:00,
2013-05-23 17:30:00,48.5,45.4,29.97,North,360,8.0,10.0,89,0.02,,OVC100,0.16,74.00,VWS V14.01,2013-05-23 21:30:00,
2013-05-23 17:31:00,48.5,45.4,29.97,NNW,348,5.0,8.0,89,0.02,,-RA,0.16,62.00,VWS V14.01,2013-05-23 21:31:00,
2013-05-23 17:35:00,48.5,45.7,29.97,NNW,346,6.0,11.0,90,0.02,,OVC100,0.16,69.00,VWS V14.01,2013-05-23 21:35:00,
2013-05-23 17:36:00,48.5,45.7,29.97,NNE,28,4.0,8.0,90,0.02,,-RA,0.16,67.00,VWS V14.01,2013-05-23 21:36:00,
2013-05-23 17:40:00,48.2,45.4,29.97,NNW,346,3.0,11.0,90,0.02,,OVC100,0.16,77.00,VWS V14.01,2013-05-23 21:40:00,
2013-05-23 17:41:00,48.2,45.7,29.97,NNW,334,9.0,9.0,91,0.02,,-RA,0.16,81.00,VWS V14.01,2013-05-23 21:41:00,
2013-05-23 17:45:00,48.2,45.7,29.98,NNW,336,5.0,12.0,91,0.02,,OVC100,0.16,79.00,VWS V14.01,2013-05-23 21:45:00,
2013-05-23 17:46:00,48.2,45.7,29.98,NNW,338,8.0,11.0,91,0.03,,-RA,0.17,81.00,VWS V14.01,2013-05-23 21:46:00,
2013-05-23 17:50:00,47.9,45.4,29.98,NNW,331,4.0,15.0,91,0.03,,OVC100,0.17,79.00,VWS V14.01,2013-05-23 21:50:00,
2013-05-23 17:51:00,47.9,45.4,29.98,NNW,336,5.0,6.0,91,0.03,,-RA,0.17,79.00,VWS V14.01,2013-05-23 21:51:00,
2013-05-23 17:55:00,47.7,45.2,29.98,NNW,333,5.0,12.0,91,0.03,,OVC100,0.17,58.00,VWS V14.01,2013-05-23 21:55:00,
2013-05-23 17:56:00,47.7,45.2,29.98,NNW,334,4.0,7.0,91,0.03,,-RA,0.17,51.00,VWS V14.01,2013-05-23 21:56:00,
2013-05-23 18:00:00,47.6,45.1,29.99,NNW,339,4.0,9.0,91,0.03,,OVC100,0.17,51.00,VWS V14.01,2013-05-23 22:00:00,
2013-05-23 18:01:00,47.6,45.1,29.99,NNW,344,5.0,6.0,91,0.03,,-RA,0.17,54.00,VWS V14.01,2013-05-23 22:01:00,
2013-05-23 18:05:00,47.4,44.9,29.99,North,350,5.0,11.0,91,0.03,,OVC100,0.17,35.00,VWS V14.01,2013-05-23 22:05:00,
2013-05-23 18:06:00,47.4,44.9,29.99,North,350,3.0,5.0,91,0.04,,-RA,0.18,39.00,VWS V14.01,2013-05-23 22:06:00,
2013-05-23 18:10:00,47.6,45.1,29.99,NNW,333,5.0,9.0,91,0.04,,OVC100,0.18,49.00,VWS V14.01,2013-05-23 22:10:00,
2013-05-23 18:11:00,47.6,45.1,29.99,NNW,333,3.0,8.0,91,0.04,,-RA,0.18,56.00,VWS V14.01,2013-05-23 22:11:00,
2013-05-23 18:15:00,47.3,44.8,30.00,North,360,4.0,10.0,91,0.04,,OVC100,0.18,67.00,VWS V14.01,2013-05-23 22:15:00,
2013-05-23 18:16:00,47.3,44.5,30.00,NNW,340,5.0,8.0,90,0.04,,-RA,0.18,76.00,VWS V14.01,2013-05-23 22:16:00,
2013-05-23 18:20:00,47.3,44.8,30.00,North,360,3.0,12.0,91,0.04,,OVC100,0.18,56.00,VWS V14.01,2013-05-23 22:20:00,
2013-05-23 18:21:00,47.3,44.8,30.00,NNW,345,4.0,9.0,91,0.03,,-RA,0.18,51.00,VWS V14.01,2013-05-23 22:21:00,
2013-05-23 18:25:00,47.1,44.3,30.00,North,351,12.0,15.0,90,0.04,,OVC100,0.19,51.00,VWS V14.01,2013-05-23 22:25:00,
2013-05-23 18:26:00,47.1,44.3,30.00,NNW,339,5.0,12.0,90,0.04,,-RA,0.19,58.00,VWS V14.01,2013-05-23 22:26:00,
2013-05-23 18:30:00,46.8,44.0,30.01,NNW,347,11.0,12.0,90,0.04,,OVC100,0.19,93.00,VWS V14.01,2013-05-23 22:30:00,
2013-05-23 18:31:00,46.7,43.9,30.01,NNW,347,7.0,13.0,90,0.03,,-RA,0.19,93.00,VWS V14.01,2013-05-23 22:31:00,
2013-05-23 18:35:00,46.7,43.6,30.01,North,350,8.0,16.0,89,0.03,,OVC100,0.19,93.00,VWS V14.01,2013-05-23 22:35:00,
2013-05-23 18:36:00,46.7,43.6,30.01,NNW,347,12.0,12.0,89,0.03,,-RA,0.19,93.00,VWS V14.01,2013-05-23 22:36:00,
2013-05-23 18:40:00,46.8,43.7,30.01,NNW,333,2.0,12.0,89,0.03,,OVC100,0.19,44.00,VWS V14.01,2013-05-23 22:40:00,
2013-05-23 18:41:00,46.8,43.7,30.01,NNW,344,9.0,11.0,89,0.03,,-RA,0.19,47.00,VWS V14.01,2013-05-23 22:41:00,
2013-05-23 18:45:00,46.8,43.7,30.02,NNW,348,11.0,11.0,89,0.03,,OVC100,0.19,35.00,VWS V14.01,2013-05-23 22:45:00,
2013-05-23 18:46:00,46.8,44.0,30.02,North,351,6.0,11.0,90,0.03,,-RA,0.19,37.00,VWS V14.01,2013-05-23 22:46:00,
2013-05-23 18:50:00,46.8,44.0,30.02,NNW,344,8.0,11.0,90,0.03,,OVC100,0.19,58.00,VWS V14.01,2013-05-23 22:50:00,
2013-05-23 18:51:00,46.8,44.0,30.02,NNW,341,8.0,12.0,90,0.02,,-RA,0.19,54.00,VWS V14.01,2013-05-23 22:51:00,
2013-05-23 18:55:00,46.8,44.0,30.02,NNW,335,5.0,12.0,90,0.02,,OVC100,0.19,70.00,VWS V14.01,2013-05-23 22:55:00,
2013-05-23 18:56:00,46.8,44.0,30.02,NNW,336,11.0,11.0,90,0.02,,-RA,0.19,65.00,VWS V14.01,2013-05-23 22:56:00,
2013-05-23 19:00:00,46.7,43.6,30.02,NNW,333,5.0,12.0,89,0.02,,OVC100,0.19,56.00,VWS V14.01,2013-05-23 23:00:00,
2013-05-23 19:01:00,46.7,43.9,30.02,NNW,345,4.0,6.0,90,0.02,,-RA,0.19,49.00,VWS V14.01,2013-05-23 23:01:00,
2013-05-23 19:05:00,46.7,43.9,30.02,NNW,347,4.0,7.0,90,0.02,,OVC100,0.19,46.00,VWS V14.01,2013-05-23 23:05:00,
2013-05-23 19:06:00,46.8,44.0,30.02,North,351,5.0,6.0,90,0.02,,-RA,0.19,53.00,VWS V14.01,2013-05-23 23:06:00,
2013-05-23 19:10:00,46.8,44.0,30.02,NNW,344,7.0,12.0,90,0.02,,OVC100,0.19,46.00,VWS V14.01,2013-05-23 23:10:00,
2013-05-23 19:11:00,46.8,44.0,30.02,NNW,341,5.0,10.0,90,0.01,,-RA,0.19,46.00,VWS V14.01,2013-05-23 23:11:00,
2013-05-23 19:15:00,46.8,44.0,30.03,NNW,345,3.0,10.0,90,0.01,,OVC100,0.19,42.00,VWS V14.01,2013-05-23 23:15:00,
2013-05-23 19:16:00,46.8,44.0,30.03,North,351,5.0,5.0,90,0.01,,-RA,0.19,33.00,VWS V14.01,2013-05-23 23:16:00,
2013-05-23 19:20:00,46.8,44.0,30.03,NNW,331,4.0,10.0,90,0.01,,OVC100,0.19,23.00,VWS V14.01,2013-05-23 23:20:00,
2013-05-23 19:21:00,46.8,44.0,30.03,NNW,337,8.0,10.0,90,0.01,,-RA,0.19,23.00,VWS V14.01,2013-05-23 23:21:00,
2013-05-23 19:25:00,46.8,43.7,30.03,NNW,331,7.0,10.0,89,0.01,,OVC100,0.19,30.00,VWS V14.01,2013-05-23 23:25:00,
2013-05-23 19:26:00,46.8,43.7,30.03,NNW,333,4.0,9.0,89,0.00,,-RA,0.19,30.00,VWS V14.01,2013-05-23 23:26:00,
2013-05-23 19:30:00,46.7,43.6,30.04,NNW,340,9.0,14.0,89,0.00,,OVC100,0.19,23.00,VWS V14.01,2013-05-23 23:30:00,
2013-05-23 19:31:00,46.7,43.6,30.04,NNW,340,4.0,9.0,89,0.00,,-RA,0.19,23.00,VWS V14.01,2013-05-23 23:31:00,
2013-05-23 19:35:00,46.5,43.4,30.04,North,349,3.0,10.0,89,0.00,,OVC100,0.19,14.00,VWS V14.01,2013-05-23 23:35:00,
2013-05-23 19:36:00,46.5,43.4,30.04,NNW,337,7.0,7.0,89,0.00,,-RA,0.19,14.00,VWS V14.01,2013-05-23 23:36:00,
2013-05-23 19:40:00,46.2,43.1,30.04,NNW,344,7.0,11.0,89,0.00,,OVC100,0.19,14.00,VWS V14.01,2013-05-23 23:40:00,
2013-05-23 19:41:00,46.2,43.1,30.04,North,351,8.0,11.0,89,0.00,,-RA,0.19,14.00,VWS V14.01,2013-05-23 23:41:00,
2013-05-23 19:45:00,46.1,42.8,30.05,NNE,24,4.0,11.0,88,0.00,,OVC100,0.19,18.00,VWS V14.01,2013-05-23 23:45:00,
2013-05-23 19:46:00,46.1,42.8,30.05,NNW,332,7.0,11.0,88,0.00,,-RA,0.19,16.00,VWS V14.01,2013-05-23 23:46:00,
2013-05-23 19:50:00,46.2,42.8,30.05,NNW,338,6.0,13.0,88,0.00,,OVC100,0.19,18.00,VWS V14.01,2013-05-23 23:50:00,
2013-05-23 19:51:00,46.2,42.8,30.05,NNW,341,4.0,9.0,88,0.00,,-RA,0.19,16.00,VWS V14.01,2013-05-23 23:51:00,
2013-05-23 19:55:00,46.2,42.8,30.05,NNW,331,9.0,12.0,88,0.00,,OVC100,0.19,16.00,VWS V14.01,2013-05-23 23:55:00,
2013-05-23 19:56:00,46.2,42.8,30.05,NNW,336,4.0,9.0,88,0.00,,-RA,0.19,14.00,VWS V14.01,2013-05-23 23:56:00,
2013-05-23 20:00:00,46.2,43.1,30.06,NNW,345,6.0,10.0,89,0.01,,OVC100,0.20,11.00,VWS V14.01,2013-05-24 00:00:00,
2013-05-23 20:01:00,46.1,43.0,30.06,NNW,330,6.0,12.0,89,0.01,,OVC019,0.20,11.00,VWS V14.01,2013-05-24 00:01:00,
2013-05-23 20:05:00,46.0,43.0,30.06,North,360,6.0,12.0,89,0.01,,OVC100,0.20,14.00,VWS V14.01,2013-05-24 00:05:00,
2013-05-23 20:06:00,46.0,43.0,30.06,NNW,334,11.0,11.0,89,0.01,,OVC019,0.20,14.00,VWS V14.01,2013-05-24 00:06:00,
2013-05-23 20:10:00,45.8,42.5,30.06,NNW,348,4.0,12.0,88,0.01,,OVC100,0.20,9.00,VWS V14.01,2013-05-24 00:10:00,
2013-05-23 20:11:00,45.8,42.8,30.06,NW,323,11.0,11.0,89,0.01,,OVC019,0.20,7.00,VWS V14.01,2013-05-24 00:11:00,
2013-05-23 20:15:00,45.7,42.4,30.08,NNW,343,3.0,13.0,88,0.01,,OVC100,0.20,9.00,VWS V14.01,2013-05-24 00:15:00,
2013-05-23 20:16:00,45.7,42.4,30.08,NNW,336,4.0,7.0,88,0.01,,OVC019,0.20,9.00,VWS V14.01,2013-05-24 00:16:00,
2013-05-23 20:20:00,45.7,42.1,30.08,NNW,342,6.0,13.0,87,0.01,,OVC100,0.20,5.00,VWS V14.01,2013-05-24 00:20:00,
2013-05-23 20:21:00,45.7,42.1,30.08,NNW,329,4.0,13.0,87,0.01,,OVC019,0.20,5.00,VWS V14.01,2013-05-24 00:21:00,
2013-05-23 20:25:00,45.5,41.9,30.08,NNW,338,3.0,14.0,87,0.01,,OVC100,0.20,7.00,VWS V14.01,2013-05-24 00:25:00,
2013-05-23 20:26:00,45.7,42.1,30.08,NW,322,10.0,10.0,87,0.01,,OVC019,0.20,7.00,VWS V14.01,2013-05-24 00:26:00,
2013-05-23 20:30:00,45.5,41.9,30.08,NNW,344,3.0,15.0,87,0.01,,OVC100,0.20,11.00,VWS V14.01,2013-05-24 00:30:00,
2013-05-23 20:31:00,45.5,41.9,30.08,NNW,336,11.0,11.0,87,0.01,,OVC019,0.20,12.00,VWS V14.01,2013-05-24 00:31:00,
2013-05-23 20:35:00,45.5,41.9,30.08,NNW,342,8.0,13.0,87,0.01,,OVC100,0.20,21.00,VWS V14.01,2013-05-24 00:35:00,
2013-05-23 20:36:00,45.5,41.9,30.08,NNW,338,10.0,10.0,87,0.01,,OVC019,0.20,21.00,VWS V14.01,2013-05-24 00:36:00,
2013-05-23 20:40:00,45.5,41.9,30.08,North,360,4.0,10.0,87,0.01,,OVC100,0.20,18.00,VWS V14.01,2013-05-24 00:40:00,
2013-05-23 20:41:00,45.5,42.2,30.08,NNW,345,3.0,8.0,88,0.01,,OVC019,0.20,16.00,VWS V14.01,2013-05-24 00:41:00,
2013-05-23 20:45:00,45.5,42.2,30.09,NNE,26,4.0,10.0,88,0.01,,OVC100,0.20,9.00,VWS V14.01,2013-05-24 00:45:00,
2013-05-23 20:46:00,45.5,42.2,30.09,North,351,4.0,7.0,88,0.01,,OVC019,0.20,9.00,VWS V14.01,2013-05-24 00:46:00,
2013-05-23 20:50:00,45.4,41.8,30.09,NNW,348,8.0,15.0,87,0.02,,OVC100,0.21,7.00,VWS V14.01,2013-05-24 00:50:00,
2013-05-23 20:51:00,45.4,41.8,30.09,NNW,346,5.0,10.0,87,0.02,,OVC019,0.21,5.00,VWS V14.01,2013-05-24 00:51:00,
2013-05-23 20:55:00,45.5,41.9,30.09,NNW,344,8.0,15.0,87,0.02,,OVC100,0.21,0.00,VWS V14.01,2013-05-24 00:55:00,
2013-05-23 20:56:00,45.4,41.8,30.09,NE,55,11.0,11.0,87,0.02,,OVC019,0.21,0.00,VWS V14.01,2013-05-24 00:56:00,
2013-05-23 21:00:00,45.5,41.9,30.10,North,360,8.0,12.0,87,0.02,,OVC100,0.21,0.00,VWS V14.01,2013-05-24 01:00:00,
2013-05-23 21:01:00,45.5,41.9,30.10,NE,45,10.0,10.0,87,0.01,,-RA,0.21,0.00,VWS V14.01,2013-05-24 01:01:00,
2013-05-23 21:05:00,45.5,41.9,30.10,North,351,3.0,11.0,87,0.01,,OVC100,0.21,0.00,VWS V14.01,2013-05-24 01:05:00,
2013-05-23 21:06:00,45.5,41.9,30.10,North,360,5.0,8.0,87,0.01,,-RA,0.21,0.00,VWS V14.01,2013-05-24 01:06:00,
2013-05-23 21:10:00,45.7,42.1,30.10,NNE,32,3.0,10.0,87,0.01,,OVC100,0.21,0.00,VWS V14.01,2013-05-24 01:10:00,
2013-05-23 21:11:00,45.7,42.4,30.10,NE,34,6.0,6.0,88,0.01,,-RA,0.21,0.00,VWS V14.01,2013-05-24 01:11:00,
2013-05-23 21:15:00,45.7,42.4,30.10,North,351,5.0,9.0,88,0.01,,OVC100,0.21,0.00,VWS V14.01,2013-05-24 01:15:00,
2013-05-23 21:16:00,45.8,42.5,30.10,North,351,7.0,8.0,88,0.01,,-RA,0.21,0.00,VWS V14.01,2013-05-24 01:16:00,
2013-05-23 21:20:00,45.8,42.5,30.10,North,9,3.0,8.0,88,0.01,,OVC100,0.21,0.00,VWS V14.01,2013-05-24 01:20:00,
2013-05-23 21:21:00,45.8,42.5,30.10,North,11,8.0,11.0,88,0.01,,-RA,0.21,0.00,VWS V14.01,2013-05-24 01:21:00,
2013-05-23 21:25:00,45.7,42.1,30.10,NNW,340,8.0,13.0,87,0.01,,OVC100,0.21,0.00,VWS V14.01,2013-05-24 01:25:00,
2013-05-23 21:26:00,45.7,42.1,30.10,NNE,28,8.0,13.0,87,0.01,,-RA,0.21,0.00,VWS V14.01,2013-05-24 01:26:00,
2013-05-23 21:30:00,45.7,41.8,30.11,NNW,331,12.0,19.0,86,0.01,,OVC100,0.21,0.00,VWS V14.01,2013-05-24 01:30:00,
2013-05-23 21:31:00,45.7,41.8,30.11,NNW,339,11.0,14.0,86,0.01,,-RA,0.21,0.00,VWS V14.01,2013-05-24 01:31:00,
2013-05-23 21:35:00,45.5,41.3,30.11,NNW,337,9.0,19.0,85,0.01,,OVC100,0.21,0.00,VWS V14.01,2013-05-24 01:35:00,
2013-05-23 21:36:00,45.5,41.3,30.11,NNW,338,10.0,13.0,85,0.01,,-RA,0.21,0.00,VWS V14.01,2013-05-24 01:36:00,
2013-05-23 21:40:00,45.4,40.9,30.11,NNE,33,5.0,13.0,84,0.01,,OVC100,0.21,0.00,VWS V14.01,2013-05-24 01:40:00,
2013-05-23 21:41:00,45.2,40.7,30.11,NNE,14,3.0,10.0,84,0.01,,-RA,0.21,0.00,VWS V14.01,2013-05-24 01:41:00,
2013-05-23 21:45:00,45.2,40.7,30.13,NNW,343,6.0,12.0,84,0.01,,OVC100,0.21,0.00,VWS V14.01,2013-05-24 01:45:00,
2013-05-23 21:46:00,45.2,40.3,30.13,NE,39,6.0,13.0,83,0.01,,-RA,0.21,0.00,VWS V14.01,2013-05-24 01:46:00,
2013-05-23 21:50:00,44.9,39.1,30.13,NNW,333,15.0,15.0,80,0.01,,OVC100,0.21,0.00,VWS V14.01,2013-05-24 01:50:00,
2013-05-23 21:51:00,44.9,39.1,30.13,North,351,12.0,16.0,80,0.00,,-RA,0.21,0.00,VWS V14.01,2013-05-24 01:51:00,
2013-05-23 21:55:00,44.8,38.4,30.13,NNE,32,3.0,18.0,78,0.00,,OVC100,0.21,0.00,VWS V14.01,2013-05-24 01:55:00,
2013-05-23 21:56:00,44.8,38.4,30.13,NE,36,11.0,11.0,78,0.00,,-RA,0.21,0.00,VWS V14.01,2013-05-24 01:56:00,
2013-05-23 22:00:00,44.9,38.5,30.13,ENE,65,10.0,18.0,78,0.00,,OVC100,0.21,0.00,VWS V14.01,2013-05-24 02:00:00,
2013-05-23 22:01:00,44.9,38.1,30.13,NNE,20,7.0,10.0,77,0.00,,OVC032,0.21,0.00,VWS V14.01,2013-05-24 02:01:00,
2013-05-23 22:05:00,44.9,38.5,30.13,NNE,24,7.0,11.0,78,0.00,,OVC100,0.21,0.00,VWS V14.01,2013-05-24 02:05:00,
2013-05-23 22:06:00,44.9,38.5,30.13,NNE,19,6.0,12.0,78,0.00,,OVC032,0.21,0.00,VWS V14.01,2013-05-24 02:06:00,
2013-05-23 22:10:00,44.9,38.1,30.13,NE,39,8.0,13.0,77,0.00,,OVC100,0.21,0.00,VWS V14.01,2013-05-24 02:10:00,
2013-05-23 22:11:00,44.9,38.1,30.13,North,360,5.0,13.0,77,0.00,,OVC032,0.21,0.00,VWS V14.01,2013-05-24 02:11:00,
2013-05-23 22:15:00,45.1,38.3,30.14,NNE,28,5.0,13.0,77,0.00,,OVC100,0.21,0.00,VWS V14.01,2013-05-24 02:15:00,
2013-05-23 22:16:00,45.1,38.3,30.14,NE,35,3.0,11.0,77,0.00,,OVC032,0.21,0.00,VWS V14.01,2013-05-24 02:16:00,
2013-05-23 22:20:00,45.1,38.7,30.14,North,11,7.0,14.0,78,0.00,,OVC100,0.21,0.00,VWS V14.01,2013-05-24 02:20:00,
2013-05-23 22:21:00,45.1,38.7,30.14,North,360,4.0,9.0,78,0.00,,OVC032,0.21,0.00,VWS V14.01,2013-05-24 02:21:00,
2013-05-23 22:25:00,45.1,39.0,30.14,NNE,18,3.0,9.0,79,0.00,,OVC100,0.21,0.00,VWS V14.01,2013-05-24 02:25:00,
2013-05-23 22:26:00,45.1,39.0,30.14,North,349,7.0,8.0,79,0.00,,OVC032,0.21,0.00,VWS V14.01,2013-05-24 02:26:00,
2013-05-23 22:30:00,45.1,39.0,30.15,NNW,329,5.0,14.0,79,0.00,,OVC100,0.21,0.00,VWS V14.01,2013-05-24 02:30:00,
2013-05-23 22:31:00,45.2,39.1,30.15,NNW,342,2.0,11.0,79,0.00,,OVC032,0.21,0.00,VWS V14.01,2013-05-24 02:31:00,
2013-05-23 22:35:00,45.2,39.1,30.15,NE,34,10.0,12.0,79,0.00,,OVC100,0.21,0.00,VWS V14.01,2013-05-24 02:35:00,
2013-05-23 22:36:00,45.1,39.0,30.15,North,360,5.0,12.0,79,0.00,,OVC032,0.21,0.00,VWS V14.01,2013-05-24 02:36:00,
2013-05-23 22:40:00,45.2,39.1,30.15,NNE,13,7.0,17.0,79,0.00,,OVC100,0.21,0.00,VWS V14.01,2013-05-24 02:40:00,
2013-05-23 22:41:00,45.2,39.1,30.15,NNE,18,2.0,8.0,79,0.00,,OVC032,0.21,0.00,VWS V14.01,2013-05-24 02:41:00,
2013-05-23 22:45:00,45.2,39.4,30.16,NNW,337,11.0,13.0,80,0.00,,OVC100,0.21,0.00,VWS V14.01,2013-05-24 02:45:00,
2013-05-23 22:46:00,45.2,39.4,30.16,NNW,344,2.0,11.0,80,0.00,,OVC032,0.21,0.00,VWS V14.01,2013-05-24 02:46:00,
2013-05-23 22:50:00,45.1,39.3,30.16,North,360,6.0,11.0,80,0.00,,OVC100,0.21,0.00,VWS V14.01,2013-05-24 02:50:00,
2013-05-23 22:51:00,45.1,39.3,30.16,North,360,5.0,6.0,80,0.00,,OVC032,0.21,0.00,VWS V14.01,2013-05-24 02:51:00,
2013-05-23 22:55:00,45.1,39.3,30.16,NNW,338,6.0,11.0,80,0.00,,OVC100,0.21,0.00,VWS V14.01,2013-05-24 02:55:00,
2013-05-23 22:56:00,45.1,39.3,30.16,North,351,6.0,8.0,80,0.00,,OVC032,0.21,0.00,VWS V14.01,2013-05-24 02:56:00,
2013-05-23 23:00:00,45.1,39.3,30.16,NNW,346,4.0,15.0,80,0.00,,OVC100,0.21,0.00,VWS V14.01,2013-05-24 03:00:00,
2013-05-23 23:01:00,45.1,39.3,30.16,NNW,348,4.0,8.0,80,0.00,,OVC036,0.21,0.00,VWS V14.01,2013-05-24 03:01:00,
2013-05-23 23:05:00,45.1,39.3,30.16,NNW,340,5.0,8.0,80,0.00,,OVC100,0.21,0.00,VWS V14.01,2013-05-24 03:05:00,
2013-05-23 23:06:00,45.1,39.3,30.16,NNW,341,5.0,5.0,80,0.00,,OVC036,0.21,0.00,VWS V14.01,2013-05-24 03:06:00,
2013-05-23 23:10:00,45.1,39.6,30.16,North,350,5.0,9.0,81,0.00,,OVC100,0.21,0.00,VWS V14.01,2013-05-24 03:10:00,
2013-05-23 23:11:00,45.1,39.6,30.16,North,351,5.0,8.0,81,0.00,,OVC036,0.21,0.00,VWS V14.01,2013-05-24 03:11:00,
2013-05-23 23:15:00,45.1,39.3,30.17,NNE,19,4.0,11.0,80,0.00,,OVC100,0.21,0.00,VWS V14.01,2013-05-24 03:15:00,
2013-05-23 23:16:00,45.1,39.3,30.17,North,351,4.0,6.0,80,0.00,,OVC036,0.21,0.00,VWS V14.01,2013-05-24 03:16:00,
2013-05-23 23:20:00,45.2,39.4,30.17,North,351,2.0,11.0,80,0.00,,OVC100,0.21,0.00,VWS V14.01,2013-05-24 03:20:00,
2013-05-23 23:21:00,45.2,39.1,30.17,NNW,344,7.0,8.0,79,0.00,,OVC036,0.21,0.00,VWS V14.01,2013-05-24 03:21:00,
2013-05-23 23:25:00,45.2,39.1,30.17,NNW,339,10.0,13.0,79,0.00,,OVC100,0.21,0.00,VWS V14.01,2013-05-24 03:25:00,
2013-05-23 23:26:00,45.2,39.1,30.17,North,351,2.0,10.0,79,0.00,,OVC036,0.21,0.00,VWS V14.01,2013-05-24 03:26:00,
2013-05-23 23:30:00,45.4,39.0,30.17,NNW,345,4.0,10.0,78,0.00,,OVC100,0.21,0.00,VWS V14.01,2013-05-24 03:30:00,
2013-05-23 23:31:00,45.4,39.0,30.17,NNW,340,4.0,9.0,78,0.00,,OVC036,0.21,0.00,VWS V14.01,2013-05-24 03:31:00,
2013-05-23 23:35:00,45.4,39.0,30.17,North,360,4.0,13.0,78,0.00,,OVC100,0.21,0.00,VWS V14.01,2013-05-24 03:35:00,
2013-05-23 23:36:00,45.4,38.6,30.17,North,360,5.0,5.0,77,0.00,,OVC036,0.21,0.00,VWS V14.01,2013-05-24 03:36:00,
2013-05-23 23:40:00,45.5,38.7,30.17,North,360,2.0,6.0,77,0.00,,OVC100,0.21,0.00,VWS V14.01,2013-05-24 03:40:00,
2013-05-23 23:41:00,45.5,38.7,30.17,NNW,337,4.0,6.0,77,0.00,,OVC036,0.21,0.00,VWS V14.01,2013-05-24 03:41:00,
2013-05-23 23:45:00,45.5,38.4,30.17,NNW,346,4.0,11.0,76,0.00,,OVC100,0.21,0.00,VWS V14.01,2013-05-24 03:45:00,
2013-05-23 23:46:00,45.5,38.4,30.17,NNW,345,6.0,6.0,76,0.00,,OVC036,0.21,0.00,VWS V14.01,2013-05-24 03:46:00,
2013-05-23 23:50:00,45.5,38.0,30.17,North,349,4.0,14.0,75,0.00,,OVC100,0.21,0.00,VWS V14.01,2013-05-24 03:50:00,
2013-05-23 23:51:00,45.5,38.0,30.17,North,349,4.0,4.0,75,0.00,,OVC036,0.21,0.00,VWS V14.01,2013-05-24 03:51:00,
2013-05-23 23:55:00,45.7,37.9,30.17,NNW,341,3.0,9.0,74,0.00,,OVC100,0.21,0.00,VWS V14.01,2013-05-24 03:55:00,
2013-05-23 23:56:00,45.7,37.9,30.17,NNW,342,7.0,10.0,74,0.00,,OVC036,0.21,0.00,VWS V14.01,2013-05-24 03:56:00,